GFSSGP_850_temp_123.txt.gz
Temp
19 20 19 19 16 16 17 19 22 22 26 26 27 26 24 23 23 21 21 20 20 20 19 19 19 18 18 18 17 17 17 17 17 17 17 17 17 16 16 16 16 17 17 17 17 17 15 15 15
19 19 19 19 16 16 17 20 21 23 26 27 27 27 26 21 22 20 19 19 20 20 19 19 18 18 18 18 17 17 17 17 17 17 17 17 17 16 16 16 16 17 17 17 17 16 15 15 15
19 18 19 15 15 16 17 20 21 25 26 27 26 27 24 22 22 22 20 20 20 20 20 19 18 18 18 18 17 17 16 17 17 17 17 17 16 16 16 16 16 16 17 16 16 16 16 15 15
18 19 19 16 16 18 19 21 23 24 26 26 26 24 23 22 22 21 20 20 20 20 19 18 18 18 18 18 17 17 16 17 17 17 18 17 16 15 15 15 16 16 16 16 16 15 15 15 15
18 18 15 16 17 18 20 22 23 23 24 21 24 23 21 20 22 21 20 20 19 19 19 18 18 17 17 17 17 17 16 17 17 17 18 17 15 15 15 15 16 16 16 16 16 15 15 14 14
18 18 15 15 16 19 20 23 24 21 19 23 19 17 20 20 20 19 20 20 19 18 18 18 17 18 17 17 17 17 16 16 16 17 18 17 15 15 15 15 15 15 16 16 16 15 14 13 14
17 14 15 16 17 18 21 23 23 21 19 19 20 16 19 20 20 19 19 19 19 18 18 17 17 17 17 17 17 16 16 16 16 17 17 16 15 15 15 15 15 15 16 16 16 15 14 13 13
18 15 17 16 16 17 20 21 22 21 19 21 20 17 18 21 21 19 18 18 19 19 18 18 17 17 17 17 17 16 16 16 16 17 16 15 15 15 15 15 15 15 15 16 16 16 14 13 13
18 14 14 17 18 17 20 18 20 21 21 21 21 21 21 20 20 19 16 17 17 18 18 18 17 17 16 16 16 16 16 16 16 17 15 15 15 14 15 15 14 15 15 16 16 15 14 13 13
16 13 16 19 18 17 19 19 19 19 19 20 21 20 19 19 18 20 17 16 13 17 17 19 17 16 16 16 16 15 15 16 16 16 15 14 14 14 14 14 14 15 15 15 15 13 13 13 13
18 15 17 18 20 19 18 18 19 18 16 19 19 20 19 19 19 17 16 16 13 16 16 18 18 17 16 16 16 15 15 16 16 15 14 14 15 14 14 14 14 14 15 15 14 13 13 13 12
18 19 19 19 19 19 18 19 18 19 18 19 20 20 20 20 19 19 18 17 18 18 16 16 17 17 17 17 16 16 16 16 16 14 14 14 15 14 14 14 14 14 14 14 14 14 13 13 13
17 18 19 19 19 19 19 18 17 18 19 19 20 20 20 20 20 20 19 18 18 17 15 15 15 16 17 16 16 17 16 16 15 14 14 14 15 14 14 14 14 14 14 14 14 13 13 13 13
19 18 18 19 19 19 18 18 18 19 19 19 20 20 20 20 20 20 20 19 18 18 17 16 16 15 16 16 16 16 16 16 15 14 14 14 15 15 14 14 13 14 14 14 13 13 13 13 13
19 17 16 17 19 18 19 16 17 17 18 17 17 18 18 19 19 20 20 19 19 19 18 14 14 16 16 15 15 16 16 17 15 15 14 14 15 14 14 13 13 13 13 13 13 13 13 13 13
18 17 15 18 18 18 18 15 16 17 17 17 17 17 17 18 18 19 21 21 20 19 19 18 16 15 15 14 16 17 16 16 16 15 14 14 14 14 14 13 13 13 13 13 13 13 13 13 13
15 14 15 16 18 18 17 16 16 16 15 14 14 15 15 17 18 18 18 20 20 19 19 19 17 17 16 14 16 16 16 16 16 14 14 14 14 14 14 14 13 13 13 13 13 13 13 13 12
14 14 15 15 17 17 16 15 13 14 14 13 13 13 13 14 15 16 17 19 20 19 19 19 18 18 16 15 16 16 16 16 15 14 13 14 14 14 14 13 13 13 13 13 13 13 12 12 12
16 16 15 16 18 17 17 14 13 13 13 13 13 12 13 12 13 15 16 17 18 19 18 18 17 15 16 15 15 16 16 15 15 14 13 13 14 13 13 13 13 13 13 13 13 13 12 12 12
16 15 14 15 16 17 15 14 13 12 12 12 12 11 11 11 12 14 15 16 17 17 17 16 16 15 15 15 13 14 15 15 14 13 13 13 13 13 13 13 13 13 13 12 12 12 12 12 12
16 15 15 15 15 16 16 14 13 12 13 13 11 11 11 10 10 11 14 15 16 16 17 17 16 15 15 14 13 13 14 14 13 12 11 12 13 13 13 13 13 13 12 12 12 12 12 12 12
15 16 16 16 14 13 16 11 13 13 13 11 10 10 9 8 9 10 13 15 16 15 16 16 16 15 13 12 12 13 12 14 13 12 12 12 12 12 12 12 12 12 12 12 12 11 12 12 11
15 16 15 15 15 14 14 10 11 11 11 10 9 9 7 7 8 9 13 15 15 15 16 15 15 14 14 12 13 12 12 13 12 12 12 12 12 12 12 12 12 12 11 11 11 11 10 11 11
16 15 14 14 13 12 14 12 10 10 10 9 9 7 7 7 8 8 13 15 15 15 15 15 15 13 13 12 13 14 12 11 12 12 13 11 11 11 11 11 11 11 11 11 11 10 9 10 9
13 11 7 10 9 10 14 11 10 12 11 9 9 7 7 8 9 9 14 14 15 15 14 14 13 13 13 12 13 12 12 11 11 12 11 11 10 11 9 10 9 10 9 10 9 8 9 9 8
14 12 7 8 8 9 12 10 11 12 10 9 8 7 7 8 9 11 12 13 13 13 13 12 11 12 12 12 11 10 11 10 11 11 11 10 10 9 9 9 8 8 7 8 7 7 7 8 7
15 12 13 10 11 9 10 13 14 12 10 9 7 7 7 8 8 9 11 11 11 13 12 11 11 11 11 10 10 10 10 9 10 10 11 10 9 10 8 8 7 6 6 6 6 6 7 6 5
16 14 13 9 8 11 12 12 11 11 10 9 7 7 7 7 8 9 10 10 11 11 11 11 11 11 10 10 10 10 9 9 10 10 9 8 9 9 8 8 7 6 6 5 6 5 5 5 6
14 14 14 12 11 11 11 11 12 11 10 9 7 7 6 7 7 8 9 9 10 10 10 10 9 9 9 9 9 9 9 9 9 9 9 9 9 8 8 8 7 7 6 5 5 5 5 5 6
16 15 13 9 12 11 10 11 12 10 9 10 8 8 7 8 7 8 8 9 9 9 9 9 9 9 8 8 9 9 8 9 9 8 8 8 8 7 7 6 6 5 5 5 5 5 5 5 5

GFSSGP_850_temp_129.txt.gz
Temp
19 18 18 18 15 14 15 16 18 19 20 22 23 22 23 23 23 20 21 20 21 21 19 18 18 18 18 18 17 17 18 18 18 18 16 16 16 17 17 17 17 17 14 15 16 16 16 16 17
18 18 18 18 14 14 14 16 19 20 21 22 23 23 22 20 20 20 19 20 20 20 19 17 18 18 18 18 17 17 18 18 18 18 17 16 16 16 17 17 17 17 15 15 15 16 16 16 16
18 18 18 14 13 14 15 17 17 20 22 21 22 22 21 18 18 19 20 20 19 19 18 17 18 18 18 17 17 17 17 18 18 18 16 16 16 16 17 17 17 17 16 15 15 15 15 15 15
17 18 17 14 14 15 16 16 18 18 21 21 20 20 19 18 19 20 20 20 19 19 18 17 17 18 17 17 17 17 17 17 18 18 16 15 16 16 16 17 17 17 16 14 14 15 15 15 15
18 17 12 13 14 15 16 18 18 17 19 19 19 20 18 18 19 20 20 19 19 18 18 17 18 17 17 17 17 17 17 17 17 18 16 15 16 16 16 17 17 17 16 13 13 14 14 15 15
16 15 12 13 14 16 16 19 18 18 18 19 19 18 17 17 17 20 20 19 18 18 18 18 17 17 17 17 17 17 17 17 17 17 16 15 15 16 16 16 16 16 16 14 14 14 14 14 14
14 12 12 14 14 15 18 19 18 17 18 19 18 17 18 17 17 18 19 19 18 17 17 17 17 17 17 17 17 16 16 16 17 17 16 15 15 16 16 16 16 16 15 14 14 14 14 14 14
17 12 14 14 15 16 17 18 19 19 18 19 18 16 18 18 17 18 18 18 18 17 16 16 16 16 16 16 16 16 16 16 17 17 16 15 15 15 15 16 16 16 14 13 14 14 13 13 13
17 11 12 15 16 16 18 16 18 18 18 19 19 19 18 18 18 18 18 18 17 17 17 15 15 15 15 16 16 16 16 16 16 16 16 15 14 15 15 15 16 15 14 12 14 14 13 13 13
14 11 13 15 17 16 17 17 18 17 17 18 18 19 19 18 19 18 18 18 17 17 17 16 15 15 14 14 16 15 16 16 16 16 15 15 14 15 15 15 15 15 14 12 13 13 13 13 14
14 13 15 17 17 18 17 17 18 17 15 17 17 18 18 19 19 19 19 19 18 17 17 17 16 15 14 12 15 15 15 16 16 16 15 14 14 14 14 15 15 15 13 12 13 13 13 13 14
16 16 17 18 18 18 17 17 17 17 16 17 16 17 17 17 17 17 17 18 18 18 17 17 16 15 14 12 15 15 15 15 16 15 15 14 14 14 14 15 15 15 13 12 13 13 13 13 13
16 17 18 18 18 17 17 17 16 16 16 16 17 17 16 16 16 16 17 18 16 17 17 15 15 15 14 14 14 15 15 15 16 14 14 14 14 14 14 14 15 14 13 12 12 13 13 13 13
17 17 17 17 17 17 17 17 17 16 15 17 17 16 15 15 15 15 16 17 17 16 16 16 14 15 14 13 13 14 16 16 16 15 15 14 14 14 14 14 15 13 13 12 13 13 13 13 13
17 16 15 17 17 17 18 16 15 14 15 15 15 15 15 15 14 15 15 15 17 18 15 15 14 15 15 13 13 13 14 15 15 15 14 14 14 14 14 14 14 13 13 13 13 13 13 12 12
15 14 13 15 16 16 17 14 14 14 14 14 14 14 14 14 13 14 15 15 16 18 17 15 14 14 14 14 16 13 13 14 15 14 14 14 14 14 14 14 13 13 13 13 13 13 12 12 12
11 13 14 14 16 16 15 14 13 13 13 13 13 13 12 13 13 13 14 14 15 17 17 15 15 14 15 16 14 13 12 13 13 14 14 14 13 14 14 14 14 13 13 13 13 13 13 12 12
13 13 13 13 15 16 14 13 13 13 13 12 12 11 10 10 10 10 12 14 14 17 17 15 15 14 14 14 14 12 13 12 13 14 14 14 13 14 14 14 13 13 13 13 13 13 12 12 12
14 14 13 13 14 15 13 13 12 13 12 11 11 10 9 9 9 9 11 14 14 16 17 17 16 15 14 14 13 12 13 13 13 13 14 14 13 13 13 13 13 13 13 12 12 12 12 12 12
14 14 13 13 14 14 13 12 12 12 12 11 10 10 9 9 9 9 10 13 13 16 16 16 16 15 15 15 14 14 13 13 12 13 13 13 13 13 13 13 13 13 13 12 12 12 12 12 12
14 13 14 13 14 14 13 11 12 12 12 12 10 9 9 9 8 9 10 13 13 15 16 16 15 15 15 15 15 14 14 13 12 12 12 12 13 13 13 13 13 13 13 13 12 12 13 12 11
14 14 15 15 13 12 13 11 11 10 10 9 9 9 10 8 8 8 11 13 14 15 15 15 15 16 15 15 14 14 14 13 12 12 12 11 12 12 12 12 13 13 13 13 13 12 12 12 12
14 15 14 14 13 12 12 10 10 9 10 8 9 9 8 7 8 9 12 13 14 14 15 15 15 15 14 14 13 14 14 13 13 11 10 11 12 11 11 11 13 13 13 12 12 12 12 12 12
14 14 11 10 10 11 12 11 10 9 8 8 10 9 7 7 8 9 12 13 14 14 14 14 13 12 12 13 12 12 13 13 13 12 11 11 9 11 11 12 12 12 12 12 12 12 12 12 11
12 10 7 11 8 9 11 9 10 10 8 8 8 8 7 8 8 9 12 12 12 12 13 12 12 12 12 13 13 12 12 12 13 11 12 10 11 12 12 10 11 12 12 12 12 12 11 11 11
13 11 6 8 7 7 10 9 11 9 8 9 9 8 8 8 8 9 10 10 10 10 11 11 11 11 11 12 12 11 11 11 11 11 10 10 11 10 11 9 9 10 11 11 11 11 11 10 10
13 11 10 7 7 6 8 11 11 8 9 8 8 7 8 8 8 10 10 10 10 11 10 10 10 10 10 10 10 11 11 10 10 9 9 9 9 10 10 8 8 8 9 8 9 9 9 10 9
13 11 11 7 9 10 9 10 10 10 9 7 8 7 7 9 9 10 10 10 10 10 10 11 11 10 10 10 10 10 10 10 9 10 10 10 10 9 9 8 7 7 6 7 7 8 8 8 8
12 11 10 9 8 10 10 10 9 10 8 7 8 7 7 8 9 9 9 10 10 10 10 10 10 9 9 9 9 9 9 9 9 9 9 9 9 8 7 7 7 6 6 6 7 7 6 7 7
12 12 10 9 11 8 8 10 11 8 8 8 8 7 7 8 8 9 9 9 9 9 10 10 10 10 10 9 9 9 9 8 9 8 8 8 8 8 8 7 7 7 7 6 6 6 6 6 5

GFSSGP_850_temp_132.txt.gz
Temp
18 18 18 18 15 13 15 16 17 18 19 21 20 20 21 19 20 20 19 18 21 20 18 18 18 18 18 18 17 17 18 18 18 16 16 16 17 17 18 17 16 16 16 16 16 16 16 16 16
18 18 18 17 13 13 14 15 17 18 19 20 22 21 20 19 19 19 19 20 20 20 18 18 18 18 18 17 17 17 17 18 18 16 16 16 17 17 18 18 17 15 15 16 16 16 16 16 16
18 18 18 13 12 13 14 17 15 18 20 20 20 20 19 18 19 19 19 20 20 20 19 18 18 18 17 17 17 17 17 18 18 16 16 16 17 17 17 17 15 15 15 15 15 16 16 16 15
17 18 16 13 13 14 15 15 16 17 20 20 19 19 18 18 18 19 19 19 20 20 19 18 18 17 17 17 17 17 17 17 18 17 16 15 16 17 17 17 17 15 15 15 15 15 15 15 15
17 17 11 13 13 14 15 17 17 16 17 18 18 17 17 18 18 19 19 19 19 19 19 18 18 17 17 17 17 16 17 17 17 16 16 15 15 16 17 17 16 14 14 14 15 15 15 15 15
16 15 11 12 13 15 15 18 17 17 17 19 18 17 17 18 17 18 18 18 19 19 19 18 17 17 17 16 16 16 16 17 17 16 16 15 16 16 16 16 16 13 14 14 14 14 15 14 14
14 11 12 13 13 15 17 18 17 17 17 18 18 16 18 18 17 18 17 17 18 17 17 17 17 16 16 16 16 16 16 16 17 17 16 15 16 16 16 16 16 13 13 14 14 14 14 14 14
16 11 13 13 14 15 17 18 18 18 17 19 18 17 17 17 17 17 17 17 17 17 16 17 17 17 16 15 16 16 16 16 16 17 15 15 15 16 16 16 15 13 14 14 14 13 13 13 13
16 11 11 14 15 16 17 17 18 18 18 18 18 18 18 18 18 17 16 17 17 17 17 16 16 17 16 16 15 15 16 16 16 16 15 14 14 15 15 16 15 13 13 14 13 12 13 13 14
14 10 12 14 16 16 17 16 17 17 16 17 17 18 17 17 17 16 16 16 17 17 17 17 17 17 17 15 15 15 14 16 16 16 15 15 14 15 15 15 15 13 13 13 13 13 13 14 14
13 13 14 16 17 17 16 16 17 16 15 15 14 17 17 17 16 16 17 16 16 16 16 16 17 17 17 16 16 15 15 14 16 16 16 15 14 15 15 15 15 13 13 13 13 13 13 14 14
15 16 16 17 18 17 16 17 16 16 14 14 15 15 16 16 17 18 18 17 16 16 16 16 16 17 17 17 16 17 13 14 15 16 16 15 14 14 14 15 15 13 11 13 13 13 13 14 14
15 16 17 17 17 16 16 16 16 15 15 14 14 15 15 15 15 16 16 17 17 16 16 17 16 16 17 17 15 15 16 14 15 16 15 15 14 14 14 14 15 13 12 12 13 13 13 13 13
16 16 16 16 17 16 16 16 16 15 15 14 14 14 14 14 14 15 15 16 17 17 17 16 15 16 17 15 14 14 14 14 14 16 15 15 14 14 14 14 14 13 13 13 13 13 13 13 13
16 15 14 16 16 16 16 15 14 14 14 14 14 14 13 12 12 13 14 15 15 17 17 17 15 15 15 13 14 13 13 13 13 15 15 14 14 14 14 14 14 13 12 12 12 12 12 13 13
14 13 13 15 15 16 16 13 13 13 14 13 12 13 13 13 12 12 13 14 15 17 18 16 16 15 15 15 15 14 13 12 13 14 14 14 14 14 14 14 14 12 12 12 13 12 12 12 12
11 13 13 13 15 15 15 13 12 13 13 12 12 11 12 12 12 12 13 13 14 16 17 16 16 14 14 15 14 13 12 12 12 13 14 14 13 13 13 14 13 12 12 12 13 12 12 12 12
13 13 13 12 14 15 14 12 12 13 12 11 11 10 10 10 10 10 10 13 14 15 16 17 16 15 14 14 11 12 12 12 13 13 14 13 14 13 13 13 13 13 12 12 12 13 12 12 12
14 13 12 12 13 14 13 11 12 12 12 11 9 10 9 9 10 9 9 11 14 15 16 16 15 15 14 14 13 14 13 12 13 13 13 13 13 13 13 13 13 13 13 13 13 12 12 11 11
13 13 12 12 13 14 12 12 11 12 11 10 10 9 9 9 9 9 9 11 13 14 15 16 16 15 14 14 14 14 13 12 12 12 12 13 13 12 12 13 13 13 13 12 13 12 12 11 11
14 12 13 13 13 13 11 11 11 12 11 10 10 9 10 8 8 8 10 11 13 15 15 15 15 15 14 14 13 13 13 13 12 12 12 12 13 12 12 12 13 13 13 13 13 12 12 12 11
14 13 14 14 12 11 12 10 10 11 9 9 8 10 8 8 8 8 11 11 13 15 14 14 15 14 14 14 14 13 13 12 13 12 12 12 12 12 12 12 12 12 13 12 12 12 12 12 12
13 14 13 13 12 11 11 10 9 9 10 7 8 10 7 8 8 9 12 12 13 14 14 15 14 14 14 14 14 14 13 12 13 12 11 11 12 11 11 11 11 12 12 12 12 12 12 12 12
13 13 10 9 9 10 11 10 9 10 10 8 9 9 7 8 9 10 12 13 14 14 14 14 14 14 13 12 12 12 13 13 13 13 13 12 11 12 12 11 12 12 12 12 12 12 12 12 12
12 10 7 10 8 9 10 9 9 10 8 7 8 8 8 9 9 10 11 11 12 11 11 11 11 12 12 12 11 11 11 11 12 13 11 11 11 11 11 11 11 11 12 12 12 12 12 12 11
12 11 6 8 7 6 9 9 11 10 8 8 8 7 8 9 9 9 9 9 10 10 10 11 11 11 12 11 11 11 11 11 11 11 11 11 11 11 10 10 10 10 11 12 11 11 11 11 11
11 11 10 6 6 6 7 10 11 8 8 8 8 7 7 8 9 9 10 9 9 9 9 10 11 11 11 11 11 10 10 10 10 10 9 9 9 9 9 9 9 10 10 10 11 10 10 10 9
12 10 10 6 9 11 9 9 10 11 10 9 8 8 7 7 8 9 9 10 10 9 10 10 10 10 11 11 10 9 10 9 9 9 9 9 9 9 9 9 7 7 8 8 8 8 8 8 8
11 10 8 8 8 10 10 10 8 10 10 9 8 7 7 7 8 9 10 10 9 10 9 9 9 9 9 11 11 9 9 9 9 9 9 9 9 9 9 8 7 7 7 7 7 7 8 8 8
11 10 9 9 10 7 8 9 9 9 8 9 8 7 7 7 8 9 9 9 9 9 9 9 9 9 9 8 9 9 9 9 9 9 10 9 9 8 7 7 7 7 6 6 6 6 7 7 7

GFSSGP_850_temp_135.txt.gz
Temp
19 18 18 19 19 17 18 18 18 19 21 20 19 19 21 20 22 22 19 18 19 19 19 18 18 18 17 17 17 17 18 17 17 16 16 17 17 17 17 16 15 16 16 16 16 16 16 16 16
18 18 18 18 18 18 18 17 18 19 19 19 20 20 20 21 18 19 19 19 20 19 18 18 18 18 18 17 16 17 18 17 17 16 16 17 17 17 17 16 15 16 16 16 16 16 16 16 15
18 18 18 16 15 17 18 17 18 18 18 19 20 19 18 18 18 18 19 19 20 19 18 18 18 18 18 17 17 17 18 17 16 16 16 17 17 17 17 15 15 16 16 16 16 16 16 15 16
17 17 16 17 16 16 17 18 17 18 19 19 17 20 17 18 18 18 19 19 19 19 18 18 18 17 17 17 17 17 17 18 16 16 16 16 17 17 17 15 15 15 15 15 16 16 16 15 16
17 17 15 15 15 16 17 17 16 18 18 18 18 19 17 17 18 18 19 18 19 18 18 18 17 17 17 17 16 17 17 17 17 16 16 16 16 17 16 15 15 15 15 15 15 15 15 15 15
16 15 16 16 15 16 16 17 16 17 17 18 18 17 17 18 18 18 18 17 17 18 18 18 18 17 17 17 16 16 17 17 17 16 16 17 17 16 16 15 14 14 15 15 15 15 15 15 15
15 14 15 14 15 16 18 17 18 18 17 18 17 18 18 18 17 18 18 17 17 17 17 17 16 17 17 17 16 16 17 17 17 16 15 16 17 17 16 15 13 13 14 14 14 14 14 14 14
16 14 14 14 15 16 17 17 18 17 18 18 18 18 18 18 17 17 17 17 16 17 17 17 16 16 16 16 16 16 16 17 17 16 15 15 16 16 16 15 14 14 14 14 14 14 14 14 13
16 14 14 15 15 17 16 17 18 18 17 18 18 17 17 18 17 17 17 17 16 17 17 17 17 17 17 16 16 15 15 16 16 16 15 15 15 16 16 16 14 14 14 13 13 14 13 13 13
14 14 15 15 15 16 16 16 17 17 16 17 17 16 16 17 16 16 16 16 15 16 17 17 17 17 17 17 17 16 15 14 14 15 15 14 15 15 16 15 14 14 14 13 13 14 14 13 13
13 15 15 16 16 16 16 16 17 16 16 14 13 15 16 17 17 17 16 16 15 16 16 16 17 17 16 17 16 16 15 14 13 13 15 14 14 14 15 15 14 13 14 13 14 13 13 13 13
15 15 15 17 17 16 16 17 16 16 15 14 14 14 15 15 16 16 16 17 16 16 16 16 16 16 16 16 17 16 15 14 15 13 13 14 14 14 15 15 14 13 13 13 13 13 14 13 13
15 15 16 17 16 16 16 16 16 14 14 14 14 14 15 15 15 15 15 15 16 17 17 16 16 16 16 16 16 15 14 14 15 14 12 14 14 14 14 15 14 14 13 13 13 13 14 13 13
15 15 15 16 16 15 15 15 16 14 14 14 14 14 14 14 15 15 15 15 15 16 17 17 17 16 15 16 16 16 15 14 15 15 14 14 15 14 14 14 14 14 13 13 13 13 13 13 13
15 15 15 15 16 16 15 15 15 14 14 13 13 12 12 13 13 14 14 15 15 16 17 18 17 15 15 16 15 13 13 13 13 15 14 14 14 14 14 14 14 14 13 13 12 12 13 13 12
14 14 15 16 15 15 16 16 14 14 13 13 13 12 13 13 12 12 12 13 14 15 16 17 17 15 15 15 15 13 13 12 13 12 12 13 14 14 14 14 14 14 13 12 12 12 12 12 12
13 15 14 15 15 15 16 15 14 13 13 12 11 12 12 13 12 10 10 11 12 14 15 16 16 14 14 15 15 14 13 13 13 12 12 13 14 13 14 14 14 13 13 12 12 12 12 12 11
14 14 13 14 15 15 14 14 14 12 12 11 10 10 11 9 10 10 10 10 11 13 14 16 16 13 14 15 13 14 13 13 14 12 12 13 13 13 13 13 14 13 12 12 12 12 12 12 12
14 13 13 13 14 14 14 13 14 12 11 10 10 10 9 10 9 9 9 10 11 12 14 16 16 15 14 14 14 13 13 12 11 12 12 12 13 13 13 13 13 12 12 12 12 12 12 11 11
13 13 13 13 13 14 13 14 13 12 11 10 9 10 10 9 8 9 9 10 11 13 14 16 16 14 13 13 13 13 13 11 11 12 12 12 13 13 12 13 13 12 12 12 12 12 11 11 11
13 13 12 14 13 13 13 14 12 11 10 10 10 10 9 8 8 8 9 10 11 13 13 14 14 14 13 13 13 12 11 12 11 11 12 12 12 12 12 12 12 12 12 12 12 12 12 12 11
13 13 13 14 13 14 12 15 12 12 11 10 9 9 9 8 9 9 10 11 11 13 14 14 13 13 13 13 12 12 12 12 12 12 12 12 12 12 12 12 12 12 12 12 12 12 12 12 12
14 13 13 13 13 12 12 13 14 11 11 10 10 9 9 8 9 10 11 12 13 14 15 14 14 14 14 14 13 13 13 11 12 12 12 12 12 12 11 12 12 12 12 12 12 12 12 12 12
12 12 11 10 11 13 12 13 14 13 11 9 10 9 9 8 8 10 10 12 13 14 14 14 14 14 13 12 13 13 12 11 12 12 12 13 11 11 10 11 11 12 12 12 12 12 12 12 12
12 12 12 13 12 14 10 11 14 11 9 9 9 8 9 8 9 9 10 10 11 12 12 13 13 13 12 12 11 11 12 11 12 13 13 13 11 11 11 11 11 11 11 12 12 11 12 12 12
12 12 11 13 13 12 9 11 14 10 9 8 8 8 9 8 9 9 9 10 10 10 10 11 12 12 12 12 11 11 11 11 11 11 12 12 11 10 10 10 10 10 11 11 12 11 11 11 11
11 12 11 8 7 10 11 12 11 8 9 8 8 8 9 8 8 8 9 9 10 10 10 10 11 11 11 11 11 11 10 10 11 11 11 10 10 10 10 9 10 9 11 11 11 11 11 11 10
12 11 12 10 12 13 12 11 14 11 10 9 9 9 8 8 8 9 9 9 9 9 9 10 9 10 10 10 11 11 10 10 10 10 10 9 9 9 9 9 8 8 9 9 9 9 9 9 9
11 12 10 11 11 14 14 15 12 12 11 10 8 8 8 8 8 9 9 9 9 9 9 9 9 9 9 9 9 10 10 10 9 9 9 10 9 9 8 8 8 7 7 7 7 7 7 7 7
11 11 11 13 11 9 11 14 11 11 10 9 8 7 9 8 8 8 9 9 9 9 9 9 9 8 9 9 9 9 9 9 9 10 10 9 9 8 8 8 6 6 6 6 6 6 6 6 6

GFSSGP_850_temp_138.txt.gz
Temp
19 19 19 19 23 23 23 23 22 23 24 23 23 23 24 24 25 25 18 17 16 17 17 17 18 18 17 18 18 18 18 17 16 17 18 18 17 16 16 16 16 16 17 17 16 17 16 16 15
19 18 19 20 23 24 24 22 22 22 22 22 23 23 24 25 20 20 19 16 18 17 17 17 18 18 17 17 17 18 18 17 16 16 17 18 18 17 16 16 16 16 16 16 16 17 16 16 15
18 18 21 22 23 24 24 22 22 22 21 22 23 22 22 22 19 18 17 17 17 17 17 17 18 18 18 17 17 17 18 17 16 16 17 17 18 17 16 15 16 16 16 16 16 16 16 16 16
17 19 19 22 23 21 22 22 21 22 22 22 21 24 20 17 17 17 18 17 17 17 17 17 17 17 17 17 17 17 18 16 16 16 17 17 17 17 16 15 16 16 16 16 16 16 16 16 16
17 19 21 21 22 21 22 21 21 22 22 22 21 23 21 18 18 18 17 17 18 18 18 17 17 17 17 17 17 17 17 17 16 16 17 17 17 17 15 16 16 15 15 16 16 16 15 15 15
19 19 22 22 21 21 21 20 20 21 21 22 22 22 20 17 17 18 18 16 17 17 17 17 17 17 17 17 17 17 17 17 16 16 16 16 16 17 16 15 15 15 15 15 15 15 15 15 15
20 21 22 21 21 20 21 20 21 21 21 21 20 22 20 18 18 18 18 17 16 17 17 16 17 17 17 17 17 17 17 17 16 16 15 16 15 16 16 15 15 15 15 15 15 15 14 15 15
18 20 20 20 21 21 21 20 20 20 21 19 19 22 22 17 18 17 16 17 17 16 16 17 17 16 16 16 16 16 16 16 17 16 15 15 15 16 15 15 15 14 15 15 15 14 14 14 14
16 20 21 20 19 20 20 20 19 19 20 19 19 19 18 16 18 16 15 16 17 16 15 16 17 17 17 17 17 16 16 14 15 15 15 15 14 14 14 13 14 15 14 14 15 14 14 14 14
19 20 20 20 20 20 20 19 20 20 20 20 19 18 16 16 17 17 16 15 16 17 16 17 16 16 16 17 16 16 16 14 14 15 15 14 14 14 14 14 14 14 14 14 15 14 14 13 13
18 20 19 19 19 19 19 19 19 20 20 19 18 17 16 15 16 16 16 15 15 15 16 16 16 16 16 16 16 16 16 15 13 13 14 14 14 13 13 13 14 14 13 13 14 14 12 12 13
19 19 19 19 18 18 19 19 19 19 19 16 15 15 15 16 16 15 15 15 15 15 15 15 15 15 15 14 16 16 16 16 14 13 13 14 14 14 13 14 13 13 13 13 12 12 12 12 12
19 19 18 18 18 18 18 19 19 18 16 15 14 14 15 15 15 15 14 15 15 14 16 15 14 15 15 16 15 15 15 15 15 15 14 13 14 13 13 13 13 13 13 12 12 12 11 12 12
19 18 19 18 19 18 18 19 17 18 16 15 14 15 15 14 14 15 15 15 15 14 15 16 15 14 15 16 16 15 15 15 15 15 15 14 14 14 14 12 12 12 12 12 13 11 11 11 12
18 18 20 19 19 20 18 18 18 18 15 16 15 15 14 14 13 14 14 14 14 14 16 16 16 15 15 15 15 15 16 15 14 13 14 14 14 14 14 12 12 12 12 12 11 11 11 11 11
19 18 20 20 19 18 18 20 20 16 16 17 16 16 14 14 14 13 12 12 12 13 14 16 16 15 14 13 14 15 15 15 13 12 13 13 14 14 14 12 13 12 11 11 11 11 11 11 11
19 21 19 19 19 19 19 20 19 16 16 17 16 16 15 14 14 13 12 11 11 12 14 15 15 14 13 14 14 13 14 13 13 12 12 12 13 14 14 13 13 12 12 11 11 11 10 10 10
20 20 19 19 19 18 19 19 20 17 16 17 16 15 15 14 14 12 11 10 10 10 12 14 14 12 12 13 13 14 14 12 12 12 12 13 13 13 13 12 13 14 12 12 11 12 10 10 10
19 19 19 20 19 17 19 19 19 18 16 16 15 15 14 13 12 12 11 10 10 9 11 13 14 13 11 12 11 13 11 12 12 12 12 13 13 12 12 12 13 13 12 12 11 11 10 10 10
18 19 19 19 18 17 19 18 20 17 16 15 14 14 13 12 11 10 10 10 10 10 10 11 11 11 12 12 11 13 11 12 12 12 12 12 12 12 13 13 13 13 12 12 11 12 10 10 10
18 18 19 18 18 18 17 19 17 16 14 13 14 13 12 10 9 9 10 10 10 10 11 12 12 12 12 12 12 12 12 11 11 11 11 12 12 12 12 12 13 13 12 12 12 12 11 11 10
18 18 18 17 17 19 17 20 18 17 16 15 14 13 12 9 9 9 9 10 11 11 11 12 12 14 13 12 11 12 11 11 11 12 11 11 11 12 11 12 12 12 12 12 12 12 12 11 11
19 16 17 17 17 17 18 17 20 16 17 16 14 13 11 9 9 9 9 10 11 13 13 12 14 15 13 13 12 12 11 11 11 11 10 11 11 11 11 11 12 11 12 12 12 12 10 10 11
16 16 16 16 17 17 19 17 21 18 17 15 14 13 10 9 9 9 10 10 11 13 14 14 14 14 14 13 12 12 12 11 11 10 10 11 11 11 11 12 12 11 12 12 12 11 11 11 11
16 17 17 17 16 19 15 15 19 18 15 14 13 12 10 8 8 9 9 10 10 11 13 13 13 14 14 13 13 12 12 11 11 11 11 11 12 11 11 11 10 10 11 12 11 12 11 10 11
17 18 16 16 17 17 13 15 18 16 14 12 11 11 10 9 9 8 9 9 9 10 11 11 11 11 11 12 11 11 11 11 11 10 11 11 11 11 11 10 9 10 11 11 11 11 12 11 10
16 16 17 15 13 15 17 17 14 13 14 12 12 11 10 9 9 9 8 9 9 10 11 11 11 11 10 10 11 11 11 11 11 11 11 11 11 10 10 10 10 10 10 11 11 11 11 11 11
17 17 16 16 14 17 19 18 21 14 15 14 13 12 11 9 9 9 9 9 9 9 9 9 9 10 10 10 10 10 10 10 10 10 10 11 10 10 10 10 10 10 10 10 10 10 11 10 10
15 16 16 17 17 19 20 21 19 18 17 15 14 12 11 10 8 9 9 9 9 9 9 9 9 9 9 9 10 10 9 10 10 10 10 9 10 10 10 10 10 9 9 8 7 8 8 8 8
19 18 18 18 17 17 17 20 17 18 17 15 13 11 11 10 8 9 9 9 9 8 8 8 9 9 9 9 10 10 9 9 9 9 9 9 9 9 9 8 8 9 9 8 8 8 7 7 7

GFSSGP_850_temp_141.txt.gz
Temp
19 18 19 20 23 24 26 26 26 26 26 25 25 26 27 27 26 24 19 19 19 19 18 18 18 18 19 18 18 18 19 18 18 18 18 18 17 16 16 17 17 17 17 17 17 17 16 16 17
17 19 20 22 23 25 27 27 25 25 25 24 25 26 27 25 23 22 21 18 18 19 18 17 18 18 18 18 18 18 18 17 17 17 18 18 17 17 17 16 16 16 17 17 16 16 16 17 17
19 19 22 24 25 25 27 26 25 24 24 24 25 25 25 23 22 21 19 18 18 19 18 17 18 17 17 17 18 17 16 16 16 17 17 18 17 16 17 16 16 16 16 16 16 16 16 16 17
19 20 22 23 25 26 25 25 24 25 24 24 24 26 23 20 20 19 19 19 20 20 18 17 17 18 17 17 17 18 17 17 16 16 17 17 17 16 16 16 16 17 17 16 16 16 16 16 16
19 21 23 24 25 26 25 24 23 25 24 25 24 26 24 20 19 18 19 19 20 20 19 18 17 18 17 17 17 17 18 17 16 16 16 17 17 16 16 16 16 16 16 16 16 15 16 15 16
21 22 24 24 25 25 25 24 23 23 24 24 24 25 24 20 19 18 18 19 20 20 20 18 17 17 17 17 17 17 17 17 16 16 16 17 17 16 16 16 16 16 16 16 16 15 15 15 15
21 22 24 25 24 24 24 23 23 24 23 24 22 24 24 21 18 18 18 17 19 19 20 18 17 17 17 17 17 17 17 17 16 16 16 15 15 15 15 15 15 15 15 16 16 15 15 15 15
20 22 23 23 24 23 23 22 22 22 23 21 21 24 24 19 17 17 18 17 17 18 19 18 17 16 16 17 17 16 16 16 16 16 15 15 14 15 15 15 15 15 15 15 15 15 15 15 14
19 21 23 24 23 24 23 22 22 21 22 22 22 21 21 19 18 18 18 17 17 17 18 17 16 16 16 16 17 17 16 15 15 15 15 15 14 13 14 14 15 15 15 15 15 15 15 15 14
20 22 23 23 23 23 22 22 22 22 22 22 21 21 19 18 19 20 19 18 16 17 16 16 16 16 16 16 16 16 16 15 13 15 15 14 14 14 14 14 15 14 14 15 14 14 14 14 14
21 21 22 22 21 21 22 21 21 22 22 22 22 20 19 18 19 19 19 19 17 17 16 15 15 15 16 16 16 16 16 16 14 13 13 14 14 14 14 14 14 14 14 13 14 14 14 14 13
20 22 21 21 20 20 21 21 22 21 21 20 19 18 18 19 19 18 18 18 17 17 16 15 15 15 15 15 15 16 15 15 14 13 14 14 14 13 14 14 13 14 13 13 13 13 13 14 14
21 22 21 21 20 20 20 21 21 21 21 19 18 17 18 18 18 18 18 17 16 17 16 15 15 15 15 14 14 14 15 15 15 15 15 15 14 12 14 13 14 14 14 14 14 13 13 14 14
22 21 21 21 21 21 20 21 21 21 21 19 18 18 18 18 18 17 17 17 17 17 16 15 14 14 14 14 14 14 14 15 15 15 15 15 14 12 13 13 13 14 14 13 13 13 13 14 14
20 20 22 22 22 21 20 20 21 21 21 19 19 18 18 17 16 16 17 16 16 17 16 15 14 15 13 14 14 13 13 13 13 15 15 14 14 14 12 14 13 13 13 12 12 12 12 12 12
21 22 21 24 22 21 20 20 24 22 20 19 20 19 19 17 17 17 16 15 15 15 15 15 14 13 14 14 13 13 13 13 13 12 14 13 14 13 13 13 13 13 12 12 12 12 12 12 12
22 21 23 23 22 22 20 21 23 20 20 20 20 20 19 18 17 17 16 15 14 13 14 14 14 13 13 13 13 13 13 13 13 15 14 13 14 14 13 13 12 13 12 12 12 12 12 12 12
23 23 23 22 22 21 21 21 22 22 20 19 20 20 19 18 17 16 15 14 14 12 12 12 13 13 13 13 12 13 13 12 12 13 13 13 13 13 12 12 12 12 12 12 12 12 12 12 11
22 21 21 23 23 20 20 21 22 22 21 20 19 18 18 17 15 14 12 12 13 12 11 11 11 12 13 12 12 12 12 12 12 13 13 12 12 12 12 12 12 12 11 11 11 11 11 11 11
20 20 21 22 22 20 20 21 22 22 21 19 18 17 16 15 13 10 10 11 13 12 11 11 11 12 12 12 12 12 12 12 13 12 12 12 12 12 13 13 13 12 11 11 11 11 11 11 11
20 20 21 21 21 21 20 20 22 21 19 17 17 16 15 13 10 10 9 10 11 11 11 11 11 12 12 12 12 12 12 13 13 12 12 12 12 12 13 12 13 11 11 11 11 11 11 11 11
19 22 21 20 19 20 20 20 22 21 18 18 18 16 15 11 10 10 10 9 10 10 11 11 12 11 12 11 12 12 12 12 12 11 11 11 11 11 11 11 11 11 11 11 11 11 11 11 11
20 19 19 19 19 19 20 19 23 21 19 19 18 16 14 11 10 10 10 10 10 11 11 11 11 12 12 12 12 12 11 12 11 11 11 11 10 11 11 11 11 11 11 11 11 11 10 11 11
20 19 18 19 19 18 21 20 23 21 21 20 17 15 13 11 10 10 10 10 9 10 11 13 12 12 12 12 12 12 12 11 11 10 11 10 10 10 10 11 10 11 11 11 10 10 11 11 11
18 19 18 18 17 19 19 19 21 20 19 19 17 16 13 11 10 9 10 10 9 10 11 11 11 12 13 13 12 12 12 11 11 11 10 10 10 11 11 11 11 11 11 11 10 11 11 11 11
18 19 17 13 19 19 17 17 21 21 18 16 15 15 12 10 9 9 10 10 10 10 10 10 10 10 11 12 11 12 11 12 10 11 10 10 10 11 11 11 11 11 11 11 11 11 10 11 11
20 18 20 19 19 17 19 20 18 18 17 15 14 14 12 11 9 9 9 9 9 9 9 10 10 10 10 10 10 11 11 10 10 10 9 9 10 11 11 11 10 11 11 11 11 10 10 10 10
19 20 18 18 15 18 22 22 22 17 18 16 16 14 13 11 10 9 10 10 10 10 9 9 9 10 10 10 10 10 10 10 10 10 10 10 11 10 10 10 10 10 10 10 9 10 11 9 9
17 18 18 20 20 20 22 23 23 21 19 18 17 15 14 12 9 8 8 9 9 9 9 9 9 9 9 9 9 9 9 9 9 9 10 10 10 9 9 9 9 9 9 9 10 10 9 9 9
20 19 20 19 19 19 21 21 21 22 20 19 17 15 14 12 9 8 8 8 8 9 9 9 9 9 9 9 9 9 9 9 9 9 9 8 8 8 8 9 9 8 9 9 9 9 9 7 7

GFSSGP_850_temp_144.txt.gz
Temp
19 19 20 20 19 20 22 25 25 25 26 25 26 26 26 24 24 20 19 19 19 19 18 18 18 19 19 19 19 18 18 18 18 18 18 16 16 16 17 17 17 17 17 17 17 16 17 17 16
19 19 20 20 19 21 23 25 25 25 25 25 26 26 26 23 23 21 20 19 20 19 18 18 18 18 19 19 19 19 18 17 17 18 18 17 16 16 16 16 16 17 17 17 16 16 17 17 16
19 19 20 19 20 21 23 25 24 25 25 25 26 26 25 22 22 21 20 19 19 19 19 19 18 18 18 18 18 18 18 16 17 17 18 18 17 16 16 16 16 16 16 17 16 16 17 16 16
19 20 20 20 21 24 25 25 24 24 25 25 25 25 22 20 20 20 19 20 19 19 18 19 18 18 18 17 18 18 17 16 17 16 17 17 17 16 16 16 16 16 16 16 17 16 16 16 16
18 20 19 20 21 24 26 25 24 24 25 25 24 24 21 20 20 19 19 20 20 20 19 19 18 17 17 17 17 17 17 16 16 17 16 17 17 15 16 16 16 16 16 16 16 16 16 16 16
20 21 20 20 23 26 25 24 24 24 24 24 24 24 21 19 19 19 20 20 21 20 20 20 19 18 18 17 17 17 17 17 16 16 16 17 16 16 16 16 16 16 16 16 16 15 15 15 15
19 18 19 21 23 24 25 24 24 24 24 24 23 22 22 19 19 19 19 19 20 20 20 19 19 19 17 17 17 17 17 16 16 16 16 16 16 16 16 16 16 16 16 15 15 15 15 15 15
19 19 20 21 22 23 24 23 23 23 23 22 22 22 21 19 19 19 18 18 19 19 18 18 18 18 17 17 17 16 16 16 16 16 15 15 16 15 15 15 16 15 15 15 15 15 15 15 14
19 18 19 21 23 23 23 22 23 22 21 22 22 22 20 19 19 19 18 18 18 19 17 17 17 17 17 16 16 16 16 16 15 15 15 14 15 15 15 15 15 15 15 15 15 15 15 14 14
19 18 21 22 22 22 23 22 22 22 22 22 22 22 21 19 20 20 19 19 18 18 18 17 17 17 16 16 16 16 15 15 15 14 15 14 14 14 15 15 15 15 15 15 15 14 14 14 14
20 18 22 22 22 22 22 22 22 22 20 22 22 21 20 19 19 19 20 19 18 18 17 17 17 16 16 16 16 17 15 15 14 15 14 14 13 14 14 14 15 14 14 15 14 14 14 14 14
20 21 22 22 21 21 21 21 22 22 21 21 20 20 19 19 20 19 19 18 18 18 17 16 16 16 16 16 15 16 16 16 15 15 15 14 14 13 13 13 15 14 14 14 14 14 13 13 14
21 21 22 22 21 20 20 20 20 21 22 21 20 19 18 19 19 19 18 18 17 17 17 17 15 15 15 15 15 16 16 16 16 15 15 15 14 14 12 13 13 14 14 14 14 13 14 14 14
22 21 21 22 21 21 21 21 21 21 21 21 19 19 18 19 18 18 18 18 18 18 18 17 16 15 15 15 14 15 16 16 16 15 15 15 14 15 15 13 13 13 13 14 13 13 14 14 14
21 19 20 21 21 21 21 19 20 21 22 21 20 19 19 18 18 17 17 17 17 17 17 17 16 16 15 15 14 14 15 15 15 15 14 15 14 15 15 13 13 12 13 14 13 13 13 14 14
20 20 18 22 22 22 20 17 20 23 21 21 20 20 19 19 18 18 18 17 17 16 16 16 16 15 15 15 14 14 13 14 14 14 15 14 14 14 15 14 12 12 13 14 14 13 13 13 13
19 18 20 21 22 22 19 18 20 22 21 20 20 20 20 20 19 18 17 16 15 15 15 14 14 15 14 14 13 13 13 13 13 14 14 14 14 14 14 13 13 12 12 13 14 12 12 12 12
20 20 21 22 21 21 19 18 20 22 21 20 20 20 20 19 18 16 15 14 14 14 14 13 13 13 14 13 13 13 12 12 13 13 13 14 14 13 13 13 13 12 12 12 12 12 12 12 12
21 20 20 21 22 21 19 19 20 21 22 21 20 19 19 17 16 14 13 12 12 12 13 13 12 12 13 13 13 13 13 12 12 13 13 13 13 12 13 12 12 12 12 12 12 12 12 12 12
21 20 19 20 22 21 19 19 20 20 21 21 20 18 17 16 13 11 10 10 11 12 13 12 11 11 12 12 13 12 12 12 13 13 13 13 12 12 12 12 12 12 12 12 12 12 12 12 12
19 19 19 20 21 20 19 18 19 21 21 18 17 17 16 13 11 11 10 9 10 11 11 11 11 11 12 12 12 12 13 12 13 13 12 13 12 12 12 12 12 12 12 12 12 11 11 11 11
18 20 20 20 18 16 20 16 18 19 17 16 17 17 14 11 11 10 10 10 10 11 11 11 11 12 12 12 12 12 12 12 13 11 12 12 12 12 12 12 11 11 11 11 12 11 11 11 11
19 20 19 19 17 17 17 16 19 20 16 16 17 16 14 11 10 10 10 10 10 10 11 11 11 12 12 12 12 13 12 12 12 12 11 11 11 11 12 11 11 10 11 12 11 11 11 11 11
20 19 18 18 16 14 17 17 18 18 18 17 17 16 13 11 10 10 10 10 10 10 10 10 11 11 12 12 12 12 12 13 12 11 11 11 11 10 11 10 10 10 11 11 11 11 12 11 11
18 17 13 14 13 14 18 18 17 18 19 17 16 15 13 11 10 9 10 10 9 10 10 10 10 11 12 11 11 11 12 12 12 10 10 11 11 10 10 11 10 10 10 11 11 11 10 11 11
17 17 13 13 14 13 17 14 18 18 17 18 17 14 12 10 9 9 9 9 9 9 9 10 10 10 10 11 11 11 10 10 10 10 9 10 10 10 10 10 9 10 10 10 10 10 11 11 11
17 15 18 16 17 14 14 18 17 16 15 15 15 13 12 10 10 9 9 8 9 10 9 10 10 10 10 10 10 11 11 10 10 9 10 9 9 9 10 10 10 10 10 10 11 11 11 11 11
18 19 15 15 13 14 17 18 17 15 15 14 14 13 12 11 10 9 9 9 9 9 8 9 9 10 10 10 10 10 10 10 10 9 9 9 9 10 10 10 11 10 10 10 10 11 10 11 11
17 16 17 17 16 16 17 19 19 16 16 15 14 14 12 10 10 8 9 8 9 9 9 8 9 9 9 10 10 10 10 10 10 9 9 9 9 10 9 10 10 9 9 10 10 10 9 9 10
17 17 18 15 16 16 17 16 21 17 17 16 16 15 13 11 9 8 8 8 8 8 8 8 9 9 9 9 9 9 10 9 9 9 9 9 9 9 9 8 8 8 9 8 8 9 9 8 8

GFSSGP_850_temp_147.txt.gz
Temp
20 20 20 19 16 15 17 21 23 23 23 24 25 25 21 22 21 19 19 19 19 19 19 18 18 19 19 19 19 19 18 18 18 17 16 16 17 17 17 17 17 17 17 17 17 17 16 17 16
19 20 19 20 15 16 17 22 21 21 24 25 25 25 23 21 20 19 19 19 19 19 19 19 18 18 19 19 19 19 19 18 17 17 17 16 17 17 17 17 16 17 17 17 17 16 16 16 16
19 19 19 16 15 17 19 21 21 23 24 24 24 25 22 21 21 19 19 19 19 19 19 19 18 18 19 18 18 18 18 18 18 17 17 16 16 16 16 16 17 16 16 17 17 17 16 15 15
19 19 20 17 18 19 22 20 22 23 24 24 24 21 20 20 20 19 20 19 19 18 19 19 18 18 18 18 18 18 17 17 17 17 17 16 16 16 16 16 16 16 16 17 16 16 16 16 15
18 19 16 17 18 20 22 22 24 22 22 23 24 21 19 19 20 19 20 20 19 19 19 19 19 18 18 17 17 17 17 17 17 17 17 17 16 16 16 16 16 16 16 16 16 16 16 15 15
18 19 16 16 18 21 22 23 23 23 23 23 23 21 19 19 19 19 20 20 19 20 19 19 19 19 18 17 17 17 17 17 16 16 16 17 17 16 16 16 16 16 16 16 16 16 15 15 14
18 16 17 18 18 20 23 23 21 22 22 22 22 20 18 19 18 19 19 20 19 18 18 18 18 18 18 18 17 17 17 16 16 16 16 16 16 16 16 16 16 16 16 16 15 15 14 14 14
19 16 18 18 19 21 22 22 22 22 21 22 22 20 17 19 19 19 20 20 20 18 18 17 17 17 17 17 17 16 16 16 16 16 16 15 15 16 15 15 15 16 16 15 15 15 14 14 14
19 15 15 19 19 20 22 21 22 22 22 22 22 21 20 20 20 20 20 20 20 18 18 17 17 17 17 17 16 16 16 16 15 15 15 15 15 15 15 15 15 15 15 15 15 15 14 14 13
17 14 18 21 21 20 21 21 21 21 20 21 21 20 20 20 19 19 19 19 18 18 17 17 17 16 16 17 16 16 15 15 15 14 14 13 13 14 14 15 15 15 15 15 15 15 15 14 14
18 16 19 21 21 21 20 20 21 21 19 21 20 20 20 20 19 19 19 18 18 18 18 17 17 17 17 17 16 16 15 15 14 14 14 15 14 13 13 13 14 14 14 15 14 14 14 14 14
18 19 20 20 21 20 20 20 20 20 21 21 21 20 19 19 19 19 19 19 18 18 18 17 17 16 16 16 16 16 16 16 14 14 14 15 14 14 13 13 13 14 14 14 14 14 14 14 14
18 19 21 21 21 20 20 19 19 20 21 21 20 21 20 19 19 19 18 18 18 18 18 17 17 17 16 15 16 16 16 16 15 15 13 14 14 14 14 13 13 13 14 14 13 14 14 14 13
20 20 20 20 20 20 19 19 19 20 21 21 20 20 19 19 18 18 18 18 17 17 17 17 17 17 17 16 15 16 16 16 15 15 15 14 14 15 15 14 13 12 13 13 13 13 14 14 14
20 18 17 18 20 19 20 17 17 21 20 20 19 19 19 19 18 18 18 18 17 17 17 17 16 16 16 15 15 15 16 16 16 15 15 15 15 16 15 15 13 13 12 13 13 14 14 14 14
17 17 16 17 19 20 19 15 17 21 21 20 20 19 19 19 18 18 18 17 16 17 16 17 16 14 15 15 14 14 14 16 15 15 16 15 15 15 15 15 13 12 12 13 13 14 14 14 14
15 14 15 17 19 18 18 16 17 20 21 20 20 20 20 19 17 17 16 16 16 15 15 15 15 15 14 14 14 13 12 13 14 15 15 15 15 14 15 14 13 12 13 12 13 13 14 14 13
14 15 17 17 19 18 17 15 16 20 20 20 20 20 19 17 16 15 15 15 16 15 14 14 14 14 14 13 13 13 12 13 13 13 14 14 14 13 14 14 13 13 12 11 12 13 13 13 12
16 16 16 17 19 18 16 16 16 18 20 18 18 19 16 16 15 15 16 16 16 14 12 13 13 13 13 13 13 13 13 13 13 13 13 13 14 14 13 13 13 12 11 12 12 13 13 12 12
16 16 16 17 19 19 17 16 16 16 18 19 18 16 15 14 15 16 15 13 12 12 12 12 12 12 12 12 13 13 13 13 13 13 13 13 14 14 14 13 12 12 11 12 12 12 12 12 12
17 17 16 16 18 17 17 15 16 17 16 17 16 15 15 15 15 13 11 10 10 11 11 11 12 11 11 12 13 12 12 12 13 13 13 13 13 12 13 13 12 12 12 12 12 12 12 12 12
16 18 18 18 16 14 16 12 15 17 14 14 14 14 13 13 12 11 10 10 10 11 11 11 11 11 11 12 13 13 13 13 12 13 14 13 12 12 12 12 12 12 12 12 12 12 12 12 11
17 19 18 18 16 14 15 13 12 14 13 12 12 12 12 12 11 10 10 10 10 10 11 11 12 11 11 12 12 13 13 12 12 13 13 11 11 13 12 12 12 11 12 12 12 12 12 12 11
18 17 17 16 13 11 13 13 12 14 14 13 12 11 12 11 10 10 10 11 10 10 10 11 11 11 11 11 12 12 12 12 12 13 11 10 11 12 11 12 12 11 11 11 12 12 12 12 12
16 13 9 12 9 10 15 13 14 16 14 15 12 11 11 11 10 10 10 10 10 10 10 11 11 11 11 11 11 11 11 12 11 11 10 10 10 10 11 11 11 11 11 10 11 12 11 12 12
14 13 9 11 10 11 14 13 15 16 14 14 12 12 11 10 10 10 10 9 10 9 9 10 11 11 11 11 11 11 12 11 10 9 10 10 10 10 10 10 10 10 10 10 11 11 11 11 11
14 14 14 13 12 10 11 14 16 13 13 12 11 11 10 10 9 9 9 9 9 9 9 9 10 10 10 10 11 11 11 11 10 10 9 9 9 10 11 10 10 9 10 10 10 11 11 11 11
15 15 13 11 12 13 12 14 14 12 12 12 11 10 10 10 9 9 9 9 9 9 8 9 9 9 10 11 10 10 11 10 9 9 9 9 9 10 10 9 9 9 9 10 10 10 10 10 10
15 15 15 13 11 12 13 14 15 14 13 12 11 10 10 10 10 9 9 8 9 9 9 8 8 9 10 10 10 10 9 10 10 10 9 9 9 9 9 9 9 9 9 10 10 10 10 10 10
17 16 15 11 13 12 12 14 16 14 13 13 12 11 11 10 9 9 8 8 9 9 8 8 8 9 9 10 10 9 9 9 9 10 9 9 9 9 9 9 9 8 9 9 10 10 10 9 9

GFSSGP_850_temp_150.txt.gz
Temp
20 19 19 19 16 14 16 19 21 22 22 23 24 22 20 20 20 19 19 18 18 19 18 18 18 19 18 18 18 18 18 18 18 17 16 17 17 17 17 17 17 17 17 17 17 16 16 15 16
19 19 19 19 14 16 17 19 20 22 23 24 25 22 21 19 19 19 19 19 19 19 19 18 18 18 18 18 18 18 18 18 18 18 17 17 16 17 16 17 17 17 17 17 16 16 16 16 16
19 19 19 15 14 16 18 21 21 22 24 24 24 22 21 19 19 19 19 20 19 19 18 18 18 18 18 18 18 18 18 18 18 18 17 17 17 17 17 16 16 16 17 17 16 16 16 16 16
19 19 19 16 17 18 20 20 22 22 23 24 23 19 19 19 19 19 19 20 19 19 19 18 18 18 18 18 18 18 18 18 18 18 18 17 17 17 16 16 16 17 17 17 16 15 16 15 15
19 18 16 16 18 19 20 21 22 21 22 23 23 19 19 19 19 19 19 20 20 19 19 18 18 18 18 18 18 18 17 17 17 17 18 17 17 17 16 16 16 16 16 16 16 15 15 15 15
18 17 16 15 17 19 20 23 23 22 22 22 21 19 18 18 19 19 19 19 19 20 19 19 18 18 18 18 18 17 17 17 17 17 17 17 17 16 16 16 16 16 16 16 15 15 15 14 15
16 15 16 17 17 19 21 22 21 21 21 21 21 17 18 18 19 19 18 19 19 19 18 17 17 17 17 17 17 17 16 16 16 16 17 17 16 16 16 16 16 15 15 15 15 14 14 14 14
18 15 17 17 18 20 21 22 22 22 20 21 22 16 17 19 20 20 19 19 18 18 17 17 17 17 17 17 17 16 16 16 16 16 16 16 16 15 15 15 16 15 15 15 14 14 14 14 14
18 15 14 18 19 20 21 21 21 22 22 21 21 21 21 20 20 20 20 19 19 18 18 17 17 17 17 16 16 16 16 16 15 15 15 15 15 15 15 15 15 15 15 15 14 14 14 14 14
16 13 16 19 20 19 20 20 21 21 20 20 20 20 20 20 20 19 19 19 18 18 18 18 18 17 17 16 16 16 16 16 15 14 15 15 15 14 14 14 15 15 15 14 14 14 14 14 14
16 15 17 19 20 20 19 20 20 19 18 20 20 19 19 19 19 19 19 19 18 18 18 18 17 17 17 16 16 16 16 15 15 14 14 14 14 15 14 14 14 14 14 14 13 12 13 14 14
17 17 18 20 20 20 19 20 19 19 20 21 20 20 19 19 19 19 19 19 18 18 17 18 18 17 16 16 16 16 15 15 15 14 13 14 14 15 14 15 14 14 14 14 14 13 13 14 14
16 17 19 20 20 20 20 19 18 19 20 20 20 20 20 20 19 18 18 18 18 18 18 17 17 17 17 16 15 15 16 16 16 15 14 13 12 13 14 15 14 13 13 13 14 14 13 13 14
18 18 19 20 20 19 18 18 18 20 20 20 19 19 20 19 19 19 18 18 18 18 18 17 17 16 16 16 16 16 15 15 15 15 15 14 13 14 14 16 15 13 13 13 13 14 13 13 13
19 17 16 17 19 17 19 16 16 21 19 20 19 19 19 19 19 19 19 18 18 17 17 17 17 16 15 16 15 15 15 15 15 15 16 15 14 14 14 14 15 14 13 13 13 13 13 13 13
17 16 15 16 17 18 19 15 16 20 19 20 20 19 19 19 18 18 18 18 18 17 17 16 16 16 15 15 15 15 15 14 14 15 15 15 14 14 14 14 15 13 12 12 12 13 13 14 13
13 13 14 15 18 18 16 15 16 20 20 20 21 19 19 18 17 17 17 17 17 16 16 15 15 14 14 15 14 15 15 14 14 14 14 15 14 14 13 13 13 13 12 12 12 12 13 13 12
13 13 14 15 18 17 16 15 15 19 18 19 20 19 18 17 16 16 16 16 16 16 16 16 15 15 14 14 14 14 14 14 14 14 13 14 14 14 13 13 13 13 14 12 11 11 13 13 12
15 15 14 15 17 17 15 15 16 17 17 17 18 17 16 15 15 14 15 16 16 15 14 13 13 13 13 13 13 14 14 14 13 13 13 13 13 14 14 13 13 12 13 12 11 11 13 12 12
14 14 13 15 17 16 15 14 14 15 16 18 18 15 14 14 14 14 14 14 14 15 14 13 12 12 12 12 13 13 14 13 13 13 13 13 13 13 13 13 12 12 12 11 10 11 12 12 12
14 14 14 15 16 16 16 15 15 16 15 15 16 16 14 14 14 14 14 15 15 13 12 11 12 12 11 11 12 13 13 12 13 12 13 13 13 13 14 14 12 12 12 12 11 11 12 12 11
14 15 16 17 15 13 15 12 13 15 14 11 10 12 12 13 14 14 14 13 12 11 11 11 11 11 11 11 12 12 13 13 14 13 13 13 13 14 13 13 13 11 12 11 11 11 12 12 11
15 16 17 17 15 14 14 13 13 13 12 10 8 11 12 14 14 13 12 11 10 10 11 11 11 11 11 11 12 12 13 13 13 13 12 12 12 13 12 12 12 11 11 11 11 11 12 12 12
17 16 12 11 12 11 12 13 11 12 13 11 9 10 12 12 11 11 11 10 10 10 10 10 11 12 11 11 11 12 13 13 12 12 12 12 11 12 11 11 11 11 11 11 11 11 12 12 12
15 13 9 12 9 10 13 12 12 14 13 13 11 9 11 11 11 10 10 10 10 10 10 10 11 11 11 11 11 12 12 12 12 12 12 10 10 10 11 11 12 12 11 11 12 12 12 12 12
13 13 9 11 9 9 12 11 14 14 13 15 12 10 10 10 11 10 10 10 9 9 9 10 11 11 12 11 11 11 12 12 12 12 11 9 10 10 11 11 11 11 11 11 10 11 11 12 12
14 13 14 12 10 10 11 13 14 11 10 10 9 9 10 10 10 10 10 9 9 9 9 9 10 10 11 12 12 12 12 11 11 10 11 9 9 10 10 10 10 10 10 10 9 10 11 11 11
15 14 12 9 12 12 12 12 14 12 10 10 9 9 9 10 10 10 9 9 8 8 8 8 9 9 10 10 11 11 11 11 11 10 10 9 9 9 10 10 10 10 10 10 9 9 10 11 11
13 13 13 12 10 11 12 13 13 13 12 10 9 9 9 10 9 9 9 9 8 8 8 8 9 9 9 10 10 11 10 10 10 10 9 8 8 9 10 10 10 9 10 9 9 9 10 10 10
16 16 12 10 12 10 11 12 15 13 13 12 10 9 10 10 9 9 9 8 8 8 8 8 8 8 9 10 9 10 9 9 9 9 9 9 8 9 9 10 10 9 10 9 9 9 10 10 10

GFSSGP_850_temp_156.txt.gz
Temp
18 19 18 18 15 13 16 18 19 20 21 21 21 21 19 18 19 19 19 19 19 19 18 18 18 17 17 17 16 17 18 18 18 18 17 17 18 17 17 17 17 16 16 16 17 16 16 16 16
18 19 18 18 14 15 16 17 19 20 21 21 21 20 19 18 18 19 19 19 18 19 18 18 19 18 17 17 16 17 17 18 18 17 17 17 17 17 17 17 16 16 17 17 16 16 16 16 15
18 18 18 13 12 15 17 18 19 21 21 21 20 19 19 18 19 19 19 19 19 18 18 18 18 18 17 16 16 17 18 17 17 16 17 17 17 17 17 16 16 16 17 17 17 16 16 15 14
18 18 17 16 15 16 18 19 20 21 21 22 20 17 18 19 19 19 19 19 19 18 18 18 18 18 18 16 16 16 17 17 17 17 17 16 16 16 16 16 16 16 16 16 16 16 16 15 15
18 17 14 15 15 17 17 19 20 21 21 21 20 17 17 18 19 20 20 19 19 19 18 18 18 18 18 17 16 18 18 17 17 17 16 16 16 16 16 16 16 16 16 16 16 15 15 15 15
17 16 13 14 15 17 17 20 21 20 20 20 19 17 17 18 18 19 20 19 19 18 18 18 17 17 17 17 18 18 18 17 17 17 15 16 16 16 16 16 16 16 16 15 15 15 15 15 15
14 12 14 15 15 17 19 20 20 19 20 20 19 16 17 18 18 19 19 19 18 18 18 17 17 17 17 17 17 17 17 17 17 17 17 15 16 16 16 16 16 16 15 15 15 15 15 15 15
17 13 15 14 15 18 19 20 20 20 20 20 20 16 17 18 18 18 19 19 18 18 17 17 17 17 17 17 17 17 17 16 16 16 17 16 16 16 16 16 15 15 15 15 15 14 15 15 14
17 13 13 16 16 18 19 20 20 20 20 20 20 21 20 18 18 18 18 18 19 18 18 17 17 17 17 17 16 16 16 16 16 16 16 16 16 16 15 15 15 15 15 15 15 14 14 14 14
14 11 14 16 18 18 19 19 20 20 19 20 20 20 20 18 18 19 19 19 19 18 18 18 17 17 17 16 16 16 16 16 16 16 16 16 16 15 15 15 15 15 15 14 14 14 14 14 15
14 13 14 17 19 19 19 19 20 19 17 20 20 20 20 18 18 19 19 19 19 19 18 17 17 17 17 16 16 16 15 15 15 15 15 15 16 16 15 15 15 14 14 14 14 13 14 14 14
15 15 16 17 19 18 18 19 19 19 20 21 21 20 20 19 19 19 20 20 20 19 18 18 18 17 17 16 16 16 15 15 15 15 15 15 15 15 15 14 14 14 14 14 14 13 13 14 14
14 15 17 18 18 17 18 17 17 18 20 20 20 20 20 20 20 20 19 19 19 19 18 18 18 18 17 17 17 16 15 15 15 15 15 15 15 15 15 15 14 14 13 14 13 14 13 13 13
16 16 16 17 17 17 17 16 17 19 20 19 19 19 19 20 20 19 19 19 19 19 18 18 17 17 17 17 17 17 16 16 15 15 15 14 14 14 14 14 14 13 13 14 13 13 14 13 13
16 15 14 15 16 15 17 15 14 19 19 19 18 19 19 19 19 19 19 19 18 18 18 18 18 17 17 17 17 17 16 15 16 16 15 14 13 14 13 14 14 14 14 12 13 12 13 13 12
14 14 13 15 15 16 17 13 15 18 17 18 19 19 19 19 18 18 18 18 18 17 17 17 17 17 17 17 16 16 16 15 15 15 16 14 13 13 13 13 14 14 15 12 12 12 12 12 12
11 12 12 13 15 15 15 14 15 18 16 17 18 19 19 18 18 18 18 18 17 17 17 17 16 17 16 16 16 15 15 15 14 14 14 14 12 12 13 14 14 13 12 12 12 12 11 11 11
12 12 12 12 16 15 15 13 14 18 17 17 18 18 18 19 19 17 17 17 17 17 16 16 16 16 16 16 15 15 14 14 13 13 13 14 12 12 13 14 13 12 11 11 11 12 11 10 10
13 12 13 13 14 14 13 13 13 15 15 15 17 18 17 19 18 16 16 16 16 16 16 16 15 15 15 15 14 14 13 13 13 13 13 12 13 12 13 13 12 12 12 12 12 12 12 10 10
12 12 11 12 13 13 13 14 13 14 15 17 17 18 19 18 17 16 15 15 14 15 15 15 15 15 14 14 13 13 13 13 13 13 12 13 13 12 12 10 12 11 12 12 11 12 11 10 10
12 11 11 12 13 13 12 12 13 14 14 15 16 16 17 17 17 15 14 13 14 14 15 14 14 13 13 12 12 12 12 12 12 12 12 12 12 12 11 11 12 12 11 12 12 12 12 10 9
12 13 13 13 13 11 13 12 13 13 11 12 12 13 14 16 14 13 12 13 14 14 13 13 13 12 12 11 12 11 12 12 12 12 12 12 12 12 12 11 12 12 12 11 11 11 11 10 10
12 13 13 13 12 12 13 12 13 11 13 12 10 11 12 12 12 12 12 13 13 12 11 12 11 12 11 11 11 11 11 11 12 12 12 12 12 12 12 12 12 10 11 11 10 10 10 11 10
14 14 11 10 10 10 12 12 12 13 15 12 9 10 10 10 11 12 12 12 11 11 11 11 11 11 11 11 11 11 11 11 12 12 12 13 13 12 12 12 11 11 11 11 10 10 10 9 9
14 13 10 11 9 10 11 10 13 14 13 12 12 10 10 10 11 11 11 11 10 10 10 11 11 11 11 11 11 11 12 12 12 12 12 13 13 13 12 12 12 11 11 11 10 10 10 10 10
13 13 10 11 9 9 10 10 14 14 12 12 13 12 10 10 10 11 10 10 10 10 10 10 11 11 11 11 11 11 11 11 12 12 13 13 13 13 11 11 11 11 10 11 11 10 10 10 10
12 12 13 10 9 9 10 12 14 12 10 9 9 10 10 10 10 10 10 10 10 10 9 10 10 10 11 11 11 10 11 11 11 12 12 12 12 12 11 10 10 10 11 10 11 10 10 10 9
14 13 13 9 11 11 11 12 14 15 14 9 8 8 9 10 10 10 10 10 9 9 8 9 9 10 10 10 11 11 11 11 11 11 11 11 11 11 10 10 10 10 10 10 10 10 10 9 9
12 12 12 13 10 11 11 12 13 15 13 11 8 9 9 10 10 10 10 9 9 9 8 8 8 9 9 10 10 10 10 10 10 11 11 11 10 9 9 9 9 10 10 10 9 10 9 9 9
14 13 14 12 10 8 10 12 14 12 11 11 9 9 9 11 10 10 9 9 9 8 8 8 8 8 9 9 10 10 10 11 11 10 10 9 9 9 9 10 10 10 10 10 9 9 9 9 8

GFSSGP_850_temp_159.txt.gz
Temp
18 19 19 19 19 17 19 20 19 21 22 21 21 21 22 19 22 22 20 19 19 19 19 19 18 17 17 16 16 17 18 18 18 17 17 17 17 17 17 17 16 16 17 17 16 16 16 16 17
18 19 19 18 18 19 20 19 20 21 20 20 20 19 20 20 19 19 19 19 18 18 19 19 18 17 17 17 16 17 18 18 17 17 17 17 17 17 17 16 16 17 16 17 16 16 16 16 16
18 18 18 16 15 19 19 19 20 21 20 20 19 19 19 19 19 19 19 19 19 18 18 18 19 18 17 17 16 17 18 18 17 16 17 17 17 17 16 16 16 16 17 16 16 16 16 15 16
18 18 17 17 17 17 18 20 20 20 20 20 19 20 18 19 19 19 19 19 19 18 18 18 18 18 17 16 17 17 18 18 18 18 17 16 17 17 16 16 16 16 17 16 16 16 15 15 16
18 17 16 16 17 18 18 19 19 21 21 20 19 18 18 19 19 19 19 19 19 18 18 18 17 18 17 17 17 16 18 18 18 18 17 16 16 16 16 16 16 17 16 16 16 16 15 16 15
17 16 17 17 17 18 18 19 20 20 20 19 19 17 18 19 19 19 19 19 19 19 18 18 17 17 17 16 17 17 17 18 18 18 17 16 16 16 16 16 16 16 16 16 15 15 15 16 15
16 15 16 15 16 18 20 19 20 20 20 20 19 18 18 18 19 19 19 19 19 18 18 18 17 17 17 17 17 17 17 17 17 17 17 16 16 16 16 16 16 16 16 15 15 15 15 15 15
17 15 16 15 17 18 19 19 20 20 20 20 20 19 18 19 19 19 19 19 18 18 18 18 17 17 17 17 17 17 17 17 17 17 17 17 16 16 16 16 16 16 15 15 15 15 15 15 15
17 16 15 16 17 19 19 19 19 20 20 20 20 20 20 19 18 19 19 19 19 18 18 18 17 17 17 17 17 17 16 16 16 16 16 17 16 15 16 16 16 15 15 15 15 14 15 15 15
15 15 16 16 17 18 18 18 19 19 19 19 20 20 20 19 19 18 19 19 19 19 19 18 17 17 17 17 16 16 16 16 16 16 16 16 16 16 15 15 15 15 15 15 14 14 15 15 15
13 15 15 17 17 18 18 18 19 18 18 20 20 20 20 19 18 18 18 19 20 19 18 18 17 17 17 16 16 16 15 15 15 15 16 16 16 16 15 15 15 15 15 14 14 14 14 14 14
15 15 15 17 18 17 18 18 18 18 20 21 21 20 20 19 19 19 19 19 20 20 19 18 17 17 17 16 16 16 15 15 15 15 15 15 15 15 15 15 15 14 14 14 14 14 14 14 14
15 15 16 17 17 17 17 16 18 18 20 20 20 20 19 19 19 19 19 19 19 19 18 18 17 17 17 17 17 16 16 16 16 16 16 15 15 15 15 14 14 14 14 14 14 14 13 14 14
15 15 16 16 17 16 16 17 16 18 20 19 19 19 20 19 19 19 19 19 19 19 18 17 18 17 17 17 17 17 16 16 16 16 16 15 15 14 14 14 14 14 14 14 14 13 13 13 13
15 15 15 15 15 16 15 16 15 18 18 19 19 19 19 19 19 19 20 20 19 19 18 18 17 17 17 17 17 16 16 16 16 16 16 15 15 14 14 13 14 14 14 14 14 13 12 13 12
15 14 15 16 15 15 16 17 17 18 17 17 18 19 19 19 19 19 19 19 19 18 18 18 17 17 17 17 17 16 16 16 16 16 15 15 15 13 13 13 13 14 14 13 13 13 12 11 12
12 15 13 15 15 15 16 16 17 16 16 17 17 18 18 19 19 19 18 18 18 18 17 17 17 17 17 16 16 16 15 15 15 15 15 15 15 11 12 12 12 13 13 12 12 13 12 11 11
14 13 12 14 15 15 15 15 16 17 15 16 17 18 18 18 19 19 18 18 17 17 17 17 17 16 16 16 15 15 15 15 14 14 14 14 13 12 11 11 11 12 12 12 12 11 11 10 10
13 13 13 13 14 15 16 15 15 15 14 15 16 18 19 19 20 18 18 17 17 16 16 16 16 15 15 15 15 15 14 14 13 13 13 13 13 12 11 11 11 10 11 11 12 11 11 10 9
13 14 14 13 14 14 15 15 16 17 17 17 17 16 18 19 19 18 17 16 15 15 15 15 15 15 15 15 14 13 13 13 13 13 13 13 12 12 12 10 11 10 10 11 11 10 10 10 10
13 13 13 14 13 13 13 14 14 16 14 15 16 15 16 16 18 16 15 14 14 14 14 15 15 15 14 13 12 12 12 12 12 13 13 12 12 12 12 12 12 11 11 11 10 10 11 10 9
13 13 14 13 13 14 14 14 14 16 14 14 14 14 14 14 14 15 14 13 13 14 14 14 14 13 13 12 12 12 12 12 12 12 12 12 12 12 12 12 11 10 11 10 11 11 10 10 10
13 13 13 13 12 12 13 14 14 13 16 16 13 11 12 12 13 12 12 12 13 13 13 13 13 12 11 11 11 11 11 11 12 12 12 12 12 12 12 11 10 10 10 10 11 11 10 11 10
13 13 12 11 12 12 13 15 14 15 16 15 14 11 10 11 10 11 11 12 12 12 12 12 12 11 11 11 11 11 11 11 12 12 12 12 12 12 12 12 12 12 11 11 12 11 10 10 9
14 13 12 12 12 13 11 12 14 15 15 13 14 12 10 9 10 10 11 11 11 11 11 11 11 11 11 11 11 11 11 11 12 12 12 12 12 12 12 12 12 12 12 11 11 11 10 10 10
13 13 12 12 13 13 11 13 15 14 14 13 12 12 10 9 10 11 11 11 11 10 10 11 11 10 10 10 11 11 11 11 11 11 11 12 12 12 12 12 11 10 11 11 10 11 10 10 10
12 12 14 12 9 11 12 13 15 12 14 11 9 8 8 9 10 11 10 10 10 10 10 10 10 10 10 10 10 10 11 11 11 11 11 11 11 12 12 11 10 11 10 10 10 10 10 11 10
14 14 11 11 11 12 13 13 15 16 16 13 10 8 7 9 9 10 10 10 10 10 9 9 9 10 10 10 10 10 11 11 11 11 11 11 11 11 11 11 10 10 10 10 10 10 10 10 9
12 13 12 12 13 14 14 14 13 16 15 12 11 8 8 8 9 9 10 10 10 9 9 8 8 9 9 9 10 10 11 11 11 10 11 11 11 11 10 10 10 10 10 10 10 10 10 10 9
13 14 13 10 11 10 13 15 14 13 11 11 9 9 9 9 9 9 9 9 9 9 8 8 8 8 9 9 9 10 10 11 11 10 10 10 9 8 8 9 9 9 10 10 9 9 9 9 8

GFSSGP_850_temp_162.txt.gz
Temp
18 19 19 19 23 23 25 25 25 25 26 25 24 26 27 25 26 25 19 18 18 17 17 20 19 18 17 17 17 18 18 18 18 17 17 17 17 17 17 17 17 17 17 17 17 16 17 17 17
18 19 19 20 23 24 26 26 24 26 25 24 23 24 25 25 22 20 19 18 18 17 17 17 19 18 17 17 17 18 18 18 18 18 17 17 17 17 17 17 17 17 17 17 16 16 16 17 17
19 19 20 22 23 24 25 24 25 24 23 24 24 22 24 23 21 21 19 19 18 17 17 17 18 18 17 17 17 18 18 18 18 17 18 17 17 17 17 17 16 17 17 16 16 16 16 16 17
18 19 20 22 21 23 24 24 23 24 23 22 23 25 21 19 20 20 19 18 18 17 17 17 18 17 17 17 16 17 18 18 17 17 18 18 17 17 17 16 17 16 16 16 16 16 16 16 16
18 20 22 22 23 23 23 22 22 24 24 23 22 23 22 19 19 19 18 18 18 18 17 17 18 18 17 17 17 17 18 18 18 17 17 16 17 17 17 16 16 16 16 16 16 16 16 16 16
20 20 23 23 24 24 24 23 23 24 24 23 23 23 22 19 19 19 18 18 18 18 17 16 18 17 18 17 17 17 17 18 18 18 16 16 16 16 16 16 16 16 16 16 15 15 15 16 16
21 22 23 22 22 23 24 22 24 24 24 24 23 25 22 19 18 19 18 18 18 17 17 16 17 17 17 17 17 16 17 18 17 17 16 16 16 16 16 16 16 16 16 16 15 15 15 16 16
19 21 21 22 23 23 23 22 22 23 24 20 21 24 24 20 18 18 18 18 17 17 17 16 16 16 16 16 17 17 17 17 17 17 17 16 16 16 16 16 16 16 16 15 15 15 15 15 15
17 21 22 22 21 23 22 23 21 21 22 21 21 22 20 19 19 18 17 17 18 17 16 16 16 16 16 16 16 17 17 17 16 16 16 15 14 15 15 15 16 16 16 15 15 15 15 15 15
20 20 22 22 22 22 22 22 22 22 23 22 21 21 21 20 18 18 18 18 17 19 18 16 16 16 17 16 16 16 15 15 16 15 15 15 15 15 15 14 16 15 15 15 15 14 15 14 13
19 20 21 21 20 20 21 21 21 22 22 23 23 22 20 19 19 19 19 19 18 18 17 16 16 16 17 16 16 16 16 15 16 15 16 15 14 15 14 14 14 15 15 15 14 14 13 14 13
19 19 19 20 19 19 21 21 21 21 22 22 21 21 21 20 20 19 20 20 19 18 17 18 18 17 16 16 15 15 15 15 15 15 15 15 15 14 14 14 14 14 15 15 14 13 13 13 13
19 20 19 18 18 18 19 19 21 21 21 21 20 19 20 20 20 20 20 19 19 19 17 18 18 16 15 16 15 15 15 15 15 15 15 15 15 15 14 14 14 14 14 15 14 13 13 13 13
19 18 19 19 19 19 19 20 20 21 21 21 20 20 20 20 20 20 18 18 18 18 18 18 18 17 15 15 17 17 17 16 16 15 14 15 15 15 14 14 14 14 14 14 14 13 12 12 13
18 18 20 20 20 20 18 20 21 20 21 20 21 20 20 20 19 19 19 19 19 19 17 19 18 17 17 17 17 17 17 17 16 16 16 16 15 15 14 14 14 14 14 14 14 13 13 12 12
19 19 19 20 19 19 18 21 22 20 20 20 21 21 21 20 19 19 19 19 18 18 19 18 18 17 17 17 17 17 17 16 16 16 16 15 15 15 14 13 13 13 13 14 13 13 13 12 11
19 19 20 20 19 20 19 21 21 19 19 20 21 21 21 20 20 19 18 19 17 19 19 18 18 17 17 16 17 16 16 16 16 16 15 15 15 15 14 13 12 13 13 13 13 13 12 11 11
20 19 20 19 20 18 19 19 21 21 20 20 21 21 21 21 20 20 18 19 19 19 18 18 17 17 17 16 17 16 16 16 16 15 15 14 14 14 14 13 12 12 12 12 12 12 12 11 10
19 18 18 20 19 17 19 20 21 21 20 20 21 22 22 21 21 20 17 19 18 18 18 18 17 17 17 16 16 16 16 15 15 14 14 14 14 13 13 12 11 11 11 11 11 11 11 11 10
17 17 18 19 19 18 19 19 20 21 21 21 21 22 22 22 21 17 16 17 17 17 17 17 16 16 16 15 15 14 12 14 14 14 13 13 13 13 13 12 11 11 10 11 11 11 11 10 10
17 17 18 18 19 18 18 18 21 20 20 20 19 19 20 21 20 17 15 14 14 13 15 16 16 16 15 15 14 14 13 13 13 12 12 13 13 13 12 12 11 11 10 10 10 10 10 10 9
17 18 17 16 16 17 18 18 21 20 20 22 21 19 18 17 17 17 14 13 12 12 14 15 15 15 14 14 13 12 11 12 11 11 12 12 13 12 12 12 11 10 10 10 11 10 10 10 9
17 17 16 16 16 17 17 17 21 17 19 22 20 17 15 14 15 14 13 12 12 13 14 14 14 14 13 13 12 12 11 11 11 12 12 12 12 12 12 12 12 10 10 10 11 10 10 10 10
17 16 15 15 16 16 18 18 20 19 20 22 20 16 14 12 13 13 12 11 11 13 13 14 13 13 12 12 12 11 10 11 11 12 12 12 12 12 12 12 11 11 10 11 11 11 10 10 10
16 15 14 14 15 16 16 16 19 19 17 20 20 18 13 12 12 12 11 11 11 12 13 12 12 12 11 12 11 11 11 11 11 11 12 12 12 12 12 11 10 10 10 10 11 11 10 10 10
15 16 14 13 15 16 14 15 19 17 16 16 16 14 12 12 11 10 11 11 10 10 12 11 11 11 11 11 11 11 12 12 12 12 12 12 12 12 12 12 11 11 10 10 11 10 10 10 10
16 15 17 15 14 14 16 18 18 16 17 15 15 13 11 11 9 9 10 10 10 10 11 11 10 10 10 10 10 11 11 11 11 12 12 12 12 12 12 12 11 10 10 10 10 10 10 10 10
18 17 13 12 12 12 16 17 18 17 17 17 14 12 11 9 9 10 10 10 10 9 10 10 10 10 10 9 9 11 10 11 11 11 11 11 12 12 12 12 12 10 10 10 10 10 10 10 10
15 14 15 15 14 16 16 16 18 17 16 14 13 11 11 9 9 10 10 9 9 9 9 9 9 9 9 9 10 10 10 10 10 10 11 11 12 12 11 11 11 11 9 10 10 10 10 10 10
12 11 15 14 14 15 16 17 17 16 14 12 12 11 10 10 9 10 10 9 9 9 9 8 8 9 9 9 10 10 10 10 10 11 10 10 10 10 9 9 8 9 10 9 10 10 10 10 10

GFSSGP_850_temp_168.txt.gz
Temp
20 20 20 20 19 20 22 25 28 27 28 29 28 28 27 25 25 21 20 21 20 19 21 21 20 19 19 19 19 19 19 19 18 18 18 18 18 18 17 17 17 17 17 16 17 17 17 17 17
20 19 19 21 20 21 23 26 27 27 28 28 28 27 28 24 22 20 21 21 20 19 21 20 18 19 19 18 18 19 19 19 19 18 18 18 18 18 17 17 17 17 17 17 17 17 17 17 17
19 19 20 19 21 21 24 26 26 28 27 27 27 26 26 25 23 22 21 21 20 19 19 20 19 18 18 18 18 18 18 19 19 18 18 18 18 17 17 17 17 17 17 17 17 17 17 17 17
19 20 20 20 21 23 24 24 26 26 27 26 27 25 24 24 23 23 21 21 20 20 19 19 19 18 18 18 18 18 18 18 18 18 18 18 17 17 17 17 16 17 17 17 17 17 16 17 16
19 20 20 21 22 25 25 26 24 24 27 26 26 26 23 22 22 21 21 21 21 20 19 19 18 18 18 18 17 17 18 18 18 18 18 18 17 17 17 16 16 16 16 16 16 16 16 16 16
20 22 21 21 24 27 27 27 25 25 26 26 25 26 23 22 21 21 21 21 21 20 20 19 19 18 18 18 17 17 18 18 18 18 17 17 17 16 16 16 16 16 16 15 16 16 16 16 16
19 19 20 21 23 25 27 27 26 26 26 26 25 25 22 22 21 21 21 21 21 20 19 19 19 18 18 17 17 17 17 17 17 17 17 16 16 16 16 16 16 16 16 15 16 16 16 16 16
20 20 21 22 23 23 26 25 25 25 26 26 26 25 24 22 21 21 21 21 21 20 19 19 18 18 18 17 17 17 17 17 17 17 17 16 16 16 16 16 16 16 16 16 15 15 16 16 16
20 18 19 22 23 25 26 25 25 24 25 25 25 25 23 22 21 21 21 20 20 19 19 18 17 17 16 16 17 17 17 17 17 17 17 16 16 16 16 16 16 16 16 16 15 15 15 16 16
20 18 21 24 23 22 24 24 24 24 24 24 25 24 23 21 20 20 20 20 19 18 18 18 18 17 16 16 16 16 16 17 17 17 17 17 16 15 16 16 16 16 16 15 15 15 15 15 15
21 18 21 23 23 23 23 23 24 24 22 24 25 24 23 22 21 21 21 21 20 19 18 18 18 17 17 16 16 16 16 16 16 16 15 16 15 16 15 16 15 15 16 15 15 15 15 14 14
20 22 22 22 23 22 21 22 23 23 23 24 24 25 24 22 22 22 22 21 21 19 18 18 18 18 17 17 16 16 16 16 16 16 15 15 15 15 15 15 15 15 15 15 15 15 14 14 14
21 22 22 22 23 22 21 21 21 22 23 23 24 24 23 23 23 23 22 22 22 20 19 18 18 17 17 16 16 16 17 16 16 16 16 16 15 15 15 15 15 14 14 14 14 14 14 14 14
22 22 21 21 21 22 21 21 22 22 22 22 22 23 23 23 22 23 23 22 22 21 20 18 18 17 17 17 17 17 17 16 16 16 16 16 15 15 15 15 14 14 14 14 14 14 14 14 14
21 20 20 21 22 21 22 20 20 22 22 22 23 23 23 23 22 22 23 22 22 22 20 19 18 17 17 17 17 17 16 16 16 16 15 16 15 15 14 14 13 13 13 14 13 14 13 13 13
20 19 18 21 23 23 22 18 21 23 24 23 23 23 23 23 23 23 22 22 22 22 21 19 18 17 17 17 17 16 17 17 16 16 16 16 15 14 14 14 13 13 14 14 14 13 13 13 13
19 18 19 21 22 22 20 19 21 22 23 23 23 23 23 24 23 23 23 22 22 21 21 20 18 17 17 16 16 16 16 17 16 15 15 16 16 15 15 15 13 14 14 14 13 13 13 12 13
18 19 20 20 23 21 20 19 20 22 22 22 22 23 23 23 24 23 23 22 22 21 21 20 18 17 16 16 16 16 17 16 15 16 15 16 15 14 15 15 14 14 14 14 13 12 12 11 12
19 19 19 20 21 20 20 20 20 21 22 21 22 22 23 23 23 24 23 22 21 21 20 19 18 17 16 16 16 17 17 17 16 16 16 15 14 12 12 14 14 12 14 13 12 11 11 10 11
19 18 18 19 21 20 20 19 20 20 21 21 22 22 23 23 23 24 23 22 21 20 20 18 18 17 16 16 15 16 16 15 15 15 15 15 13 13 13 13 13 13 11 11 11 11 11 11 10
18 18 17 17 19 19 18 17 19 20 21 21 21 22 22 23 23 23 23 22 21 20 18 18 17 16 16 16 15 15 15 14 13 13 13 14 12 12 12 12 13 12 10 11 11 11 11 11 10
17 19 19 18 17 16 19 15 18 20 21 21 23 23 22 22 22 23 22 22 20 19 18 17 16 15 15 15 16 16 15 14 14 13 13 13 12 12 12 12 11 11 11 10 10 11 11 11 11
18 19 18 18 17 16 17 16 18 19 20 21 22 20 20 19 20 21 21 20 19 17 17 16 15 14 14 14 15 15 14 13 12 12 12 12 11 11 12 12 12 12 10 10 10 10 10 10 10
19 18 17 17 15 13 16 16 17 18 20 20 21 20 18 17 18 19 19 18 17 16 15 15 14 13 13 14 14 14 13 12 12 12 12 11 11 11 12 12 12 11 10 10 10 10 10 11 10
17 16 13 13 12 13 17 17 18 20 20 20 19 19 17 16 16 17 17 16 15 14 14 13 12 12 12 13 13 13 12 12 11 11 11 12 12 12 12 12 10 10 10 10 10 10 10 10 10
15 16 13 12 12 13 18 14 17 20 19 19 19 19 17 16 16 16 15 14 13 12 12 12 11 11 11 11 12 11 11 11 11 11 11 11 12 12 12 12 10 10 10 11 11 10 10 10 9
14 13 15 14 15 13 14 17 18 18 17 17 18 17 16 15 15 14 14 13 12 12 11 10 10 10 11 12 12 12 12 11 10 10 10 10 10 10 10 11 10 11 10 10 11 11 10 10 9
13 15 13 12 11 11 14 15 16 18 18 15 16 14 15 14 13 13 13 13 12 12 10 10 10 10 10 10 11 11 10 10 10 9 10 10 10 11 11 10 10 11 10 10 10 10 10 10 10
10 11 11 8 11 10 12 14 18 16 16 14 13 14 11 11 12 13 13 12 11 11 9 10 9 10 9 10 10 10 9 10 9 10 10 10 11 11 11 11 11 10 10 9 10 10 10 10 10
10 10 8 7 9 7 8 11 9 7 13 12 13 12 11 11 11 12 12 12 11 10 9 9 9 9 9 9 10 10 10 10 10 10 10 10 11 11 11 11 10 10 9 10 10 10 10 10 10

GFSSGP_850_temp_174.txt.gz
Temp
19 19 20 19 16 14 17 19 21 23 25 25 26 24 21 21 22 21 20 21 20 20 20 20 20 20 20 20 19 18 18 18 17 17 17 18 17 16 17 16 17 17 17 17 18 17 17 17 16
19 19 19 19 14 16 18 19 23 22 25 25 24 23 22 20 21 21 20 20 20 20 20 20 20 20 20 19 19 19 18 18 18 17 17 18 17 16 17 17 17 17 17 17 17 17 17 17 16
19 19 19 13 13 16 18 21 22 24 25 25 24 24 22 21 22 23 21 20 20 20 21 20 20 20 20 20 19 19 19 19 18 18 18 17 16 17 17 17 16 16 17 17 17 17 17 16 16
19 19 18 15 17 17 20 21 23 23 25 25 24 21 22 22 23 23 22 20 20 21 21 20 20 20 20 20 20 19 19 19 19 18 18 18 17 17 17 17 16 16 17 17 17 16 16 16 16
19 18 14 16 17 18 18 21 24 24 23 24 24 21 21 22 22 22 22 21 21 20 20 20 20 19 19 19 19 19 19 19 19 19 18 17 16 17 17 17 16 16 16 17 17 16 16 16 15
18 17 15 16 17 18 18 22 23 24 23 25 23 21 21 21 21 21 21 21 20 20 20 20 20 20 19 18 19 19 19 19 19 18 18 17 16 16 16 17 17 16 16 16 16 16 16 16 15
16 13 15 17 17 18 21 22 23 22 22 23 23 19 21 20 21 20 20 20 20 20 20 19 19 19 18 18 18 18 18 18 18 18 17 17 16 16 16 16 16 16 16 16 16 16 16 15 15
19 14 17 16 18 20 21 23 23 23 23 24 23 18 19 20 21 20 20 20 20 20 20 19 19 19 18 18 17 17 17 17 18 18 17 16 17 16 16 16 16 16 16 16 16 16 15 15 15
19 13 14 17 19 19 21 20 23 23 23 23 23 23 24 21 21 20 20 20 20 20 20 19 19 19 19 18 18 17 17 17 17 17 18 17 17 16 16 16 16 16 16 16 16 15 15 15 15
16 12 15 17 20 20 20 20 21 21 21 22 22 23 23 21 21 21 20 20 19 19 19 18 18 18 17 17 17 17 16 16 17 17 17 17 16 16 16 16 16 16 16 16 16 15 15 15 15
16 14 16 19 20 20 20 20 21 20 18 22 22 22 22 22 21 21 20 20 20 19 19 18 18 18 18 17 16 16 16 16 16 17 17 16 16 15 15 15 15 15 15 16 16 15 15 15 14
16 17 18 19 20 19 19 21 20 20 21 22 21 21 20 21 21 21 20 20 19 19 20 19 19 18 18 17 17 17 16 16 16 16 17 16 16 16 16 15 15 15 15 15 15 15 14 14 14
16 17 19 20 20 20 20 19 19 20 21 21 22 21 21 21 21 21 21 21 20 20 20 19 18 18 18 17 16 16 16 16 16 16 16 15 15 15 16 15 15 15 15 15 15 14 14 14 14
18 18 18 19 19 19 18 18 19 21 21 21 21 21 21 22 21 21 21 21 20 20 20 19 19 18 18 17 17 17 16 16 16 16 16 16 15 15 15 15 15 15 15 14 14 14 13 13 13
18 16 15 17 18 18 19 17 16 21 20 20 21 21 21 21 22 21 21 21 20 20 20 19 19 19 18 17 17 17 16 16 16 16 15 15 15 15 15 15 15 15 15 14 14 14 13 13 13
15 15 14 16 18 19 18 15 17 21 20 20 21 22 22 22 22 22 22 22 22 22 21 19 19 19 18 17 17 16 16 16 16 16 16 16 15 15 15 15 15 15 15 14 14 13 13 13 13
13 12 14 15 17 17 17 15 16 20 20 20 21 22 22 22 22 22 22 22 22 22 22 20 19 18 18 17 17 17 16 16 16 16 16 15 15 15 15 15 15 15 15 14 14 14 13 13 12
12 12 13 14 16 16 16 15 16 20 19 19 20 21 22 22 22 22 22 23 23 22 22 21 19 18 18 17 17 16 16 16 16 15 15 15 15 14 15 15 14 14 15 14 14 13 13 12 12
13 13 12 14 15 15 15 14 15 17 18 17 18 20 21 21 22 22 22 22 22 22 22 22 19 18 17 17 17 17 17 16 16 16 16 16 15 14 14 14 14 14 14 14 13 13 11 12 12
13 12 12 13 15 16 15 15 15 15 16 18 19 19 20 21 21 22 22 22 22 22 21 21 19 18 18 18 18 18 17 17 16 16 16 15 15 15 14 14 13 13 13 13 13 12 11 11 11
13 12 13 14 15 15 15 15 15 15 16 17 19 20 20 20 20 21 21 22 22 22 21 22 20 19 18 18 17 17 16 16 16 16 16 15 14 14 13 12 11 12 12 12 12 10 10 11 11
13 14 15 14 14 13 15 13 14 15 15 15 17 19 19 20 22 21 21 22 22 21 21 21 20 18 17 17 17 17 18 17 16 15 15 14 13 13 12 11 11 11 12 12 10 10 10 10 10
14 15 15 15 13 12 13 12 14 14 15 16 15 17 17 18 19 20 22 22 22 22 21 20 19 18 17 17 17 17 16 15 15 14 13 13 13 12 11 11 11 11 11 10 10 9 9 9 9
13 15 14 14 12 11 12 13 14 13 14 14 15 17 18 18 18 19 20 21 22 20 19 20 18 17 16 16 15 15 15 15 14 13 12 12 12 11 11 11 11 11 10 10 10 10 9 9 9
12 11 9 10 10 11 12 12 14 12 7 8 12 16 17 17 18 19 20 20 20 18 17 17 17 16 15 15 15 15 14 14 14 13 13 12 12 11 11 11 11 11 10 10 10 10 9 9 9
9 10 10 9 9 8 10 10 12 8 8 8 7 9 14 15 16 17 17 17 16 16 16 16 16 15 15 14 14 14 14 13 13 12 11 11 11 11 11 11 11 10 10 10 9 10 10 10 10
8 7 8 8 9 8 8 11 12 9 8 7 7 7 8 13 13 13 15 15 15 15 15 15 14 14 14 14 13 13 13 12 11 11 11 11 10 10 10 11 11 10 9 9 10 10 10 10 10
7 7 7 7 6 7 9 9 10 8 7 7 7 7 7 9 11 12 13 13 14 13 13 13 13 13 13 12 12 12 11 11 11 10 10 10 10 9 9 10 10 9 9 10 9 10 10 10 10
6 6 7 5 5 5 7 8 8 7 7 7 7 7 7 8 9 10 12 12 12 13 13 12 12 12 11 10 10 10 10 10 10 10 9 9 9 9 9 10 9 9 9 9 9 9 10 10 10
5 4 3 3 2 2 3 6 7 7 6 6 6 6 6 8 8 9 10 12 12 11 11 11 11 10 10 9 9 9 9 9 9 8 9 10 10 10 10 10 9 10 9 9 9 10 10 10 10

GFSSGP_850_temp_177.txt.gz
Temp
19 19 19 19 15 13 17 19 20 21 23 24 24 24 22 21 22 21 21 21 21 21 20 20 20 20 19 19 17 17 16 16 16 17 17 17 16 17 17 17 16 17 17 17 17 17 17 16 16
19 19 19 18 14 16 17 18 22 22 23 23 23 22 21 21 21 21 21 21 21 21 21 20 20 20 20 20 19 18 17 16 16 17 18 17 16 17 17 17 16 17 17 17 17 17 16 16 15
19 19 19 12 11 16 17 20 21 22 23 24 23 22 21 21 22 23 22 22 20 20 20 20 20 20 20 20 20 19 19 19 18 18 17 17 16 16 17 17 16 17 17 17 17 16 16 15 15
19 19 17 15 16 16 18 20 22 21 25 24 23 21 22 22 23 22 21 21 21 20 20 20 20 20 19 20 19 19 19 18 19 19 18 17 17 17 17 17 16 16 17 17 17 16 15 15 15
19 18 14 15 16 17 17 19 20 22 23 23 23 21 21 22 22 22 22 21 21 21 20 20 20 19 19 19 19 19 19 19 18 18 18 18 17 17 17 16 16 16 16 17 16 16 15 15 15
18 16 14 15 16 17 16 20 21 22 22 23 21 20 21 22 22 22 22 21 20 21 20 20 19 19 18 18 19 19 18 18 18 18 18 17 16 16 16 16 16 16 16 16 16 16 15 15 15
15 13 14 15 16 17 20 21 21 22 22 23 23 19 21 21 21 22 21 20 20 19 19 20 19 19 18 17 18 18 18 18 17 18 18 17 16 16 16 16 16 16 16 16 16 16 15 15 15
18 13 16 15 16 18 20 21 22 21 22 23 22 19 20 21 20 21 20 20 19 19 19 19 19 19 19 18 17 17 17 17 17 17 17 16 17 17 16 16 16 16 16 16 16 16 15 15 15
18 13 13 16 17 19 20 19 22 22 22 22 22 23 22 21 20 20 20 20 19 19 19 19 19 18 18 18 17 17 17 17 17 17 17 16 17 16 16 16 16 16 16 16 15 15 15 15 15
15 11 14 16 18 19 19 19 21 21 20 21 22 23 23 20 20 20 20 20 20 19 19 19 18 18 18 18 17 17 16 16 16 17 17 17 16 16 16 16 16 16 15 15 15 15 15 15 15
14 13 14 17 19 19 19 19 20 20 17 21 21 21 21 20 20 20 20 21 22 20 19 19 19 18 18 18 17 17 17 16 16 16 17 16 16 16 16 16 16 16 15 15 15 15 14 15 15
15 16 17 18 19 18 17 19 19 20 21 21 21 21 20 20 20 19 20 20 20 20 20 19 19 19 18 18 17 17 16 16 16 16 16 16 16 16 16 16 15 15 15 15 15 15 14 14 14
15 16 18 19 18 19 19 17 17 19 21 21 21 20 21 21 20 20 20 20 20 20 20 20 19 19 19 18 17 17 17 16 16 15 16 16 16 16 15 15 15 15 15 15 15 14 14 14 14
16 17 16 17 18 17 17 17 17 20 20 20 20 21 21 21 21 21 20 20 20 20 19 20 19 19 18 18 17 17 16 16 16 15 15 15 15 15 15 15 15 15 15 15 14 14 14 14 14
17 15 14 16 18 17 17 16 16 21 18 19 20 21 21 21 21 21 21 20 20 20 20 20 19 18 18 18 18 17 16 16 16 16 16 15 15 15 15 15 15 15 15 14 14 14 14 13 13
15 14 14 16 17 18 17 14 16 19 18 19 21 21 21 22 22 21 22 20 20 20 20 20 19 18 18 18 17 17 17 16 16 16 15 15 15 15 15 15 15 15 14 14 14 14 13 13 13
12 12 13 14 16 16 17 14 16 20 18 18 19 20 20 21 22 22 22 21 21 20 20 20 20 19 18 18 17 17 17 16 16 16 15 15 15 15 15 15 15 15 15 15 14 13 13 13 12
12 11 12 13 15 15 13 13 13 18 18 17 19 20 20 21 21 22 22 22 22 21 21 21 21 20 18 18 17 16 16 16 16 16 15 15 15 15 15 14 14 15 14 14 14 13 13 12 12
13 12 12 12 14 13 14 14 13 16 16 17 19 19 20 20 21 21 21 22 21 22 21 21 20 20 19 17 17 16 16 16 16 15 15 16 15 15 14 14 14 14 13 13 13 13 12 12 11
12 11 11 12 13 13 13 14 14 14 15 17 17 18 18 19 20 21 21 21 21 21 22 21 21 21 19 18 18 18 17 16 16 16 16 15 15 14 14 14 13 13 13 13 13 13 12 11 11
11 11 11 12 14 13 13 13 14 14 15 17 17 17 18 18 19 21 22 21 21 21 21 22 21 21 18 18 18 18 16 15 15 15 16 16 15 14 14 13 12 12 12 12 12 11 11 11 11
11 12 13 13 13 11 13 11 13 13 13 15 15 14 15 17 20 21 22 22 21 21 22 22 21 21 18 18 17 18 17 16 16 16 16 15 14 14 14 13 12 12 11 11 11 10 10 10 11
12 14 13 14 12 11 12 11 12 12 13 12 11 9 13 15 16 19 20 21 21 21 22 22 21 19 19 18 17 17 17 16 16 15 15 15 14 14 13 11 11 11 11 11 10 10 10 10 10
12 13 12 12 11 9 11 11 13 11 8 8 8 7 9 14 15 15 18 21 21 21 21 21 19 20 18 18 17 17 16 16 15 15 15 14 14 13 12 11 11 10 11 11 10 10 10 10 9
10 12 8 8 9 11 11 11 13 8 7 7 7 7 7 10 12 13 16 18 20 21 20 21 19 16 18 18 17 16 15 15 15 15 14 14 13 12 11 11 11 11 10 10 10 10 9 10 9
8 8 8 8 8 8 10 10 11 8 7 7 7 7 7 8 9 11 14 15 17 16 16 16 18 16 18 17 16 16 16 14 14 14 13 12 12 11 11 11 11 11 10 9 9 9 9 9 9
7 6 8 6 6 5 7 10 7 8 7 7 7 7 7 7 8 9 10 13 15 14 14 14 14 15 17 17 15 14 14 14 13 13 12 11 11 11 10 10 10 10 9 9 9 10 10 10 10
7 7 6 5 4 6 7 8 9 6 6 7 7 6 6 6 7 9 10 11 13 13 13 13 13 13 14 13 14 13 13 13 12 12 11 11 10 10 10 10 10 9 9 9 9 10 10 10 10
4 4 5 4 4 3 6 7 7 6 6 7 7 6 6 6 6 8 9 10 12 13 13 13 13 13 13 12 12 12 12 11 11 10 10 9 9 9 9 9 9 9 9 9 9 9 10 10 10
5 3 3 1 1 -0 0 4 6 6 7 7 7 7 6 6 6 6 8 8 10 12 13 13 13 13 11 11 11 10 10 10 10 9 9 9 9 9 9 9 9 9 9 9 9 9 10 10 10

GFSSGP_850_temp_180.txt.gz
Temp
20 20 19 19 15 13 17 19 18 20 21 21 22 22 22 20 22 20 21 21 22 22 21 19 19 19 19 19 18 16 16 17 17 17 17 17 16 17 16 16 17 17 17 17 17 16 16 16 16
20 19 19 18 14 16 17 18 21 21 22 22 23 22 21 21 21 21 21 21 21 21 21 20 19 19 19 17 17 16 15 15 16 17 18 17 17 17 17 16 16 17 17 17 17 16 16 16 16
19 19 19 11 11 16 17 19 21 22 23 22 22 22 21 22 22 22 22 21 21 21 21 20 20 19 19 18 17 17 16 16 15 17 18 17 16 17 17 16 16 16 17 17 17 16 16 16 15
19 19 17 14 17 16 17 19 19 19 23 22 22 21 22 23 23 23 22 22 21 20 20 20 20 20 19 19 19 18 18 17 17 17 17 17 16 17 17 16 16 16 17 17 16 16 16 16 15
19 18 13 15 16 16 16 18 18 19 21 22 22 21 21 21 22 23 23 22 21 20 20 20 20 19 19 19 19 19 18 18 17 17 17 17 17 17 17 16 16 16 16 16 16 16 16 15 15
17 16 14 15 16 17 16 19 19 20 21 22 22 20 21 22 22 22 22 22 21 21 20 20 20 19 19 19 19 19 19 18 18 17 17 17 16 17 17 17 16 16 16 16 16 16 16 15 15
15 12 15 15 15 16 19 20 20 19 20 21 22 20 21 22 21 21 21 20 20 20 21 21 20 20 19 19 19 19 18 18 18 17 17 16 16 16 16 17 16 16 16 16 15 16 16 15 15
18 12 15 14 15 18 19 20 21 21 21 22 21 19 21 22 21 21 20 20 20 20 20 20 20 20 19 19 18 18 18 18 18 17 17 17 16 16 16 16 16 16 15 15 15 15 15 15 14
17 12 13 16 15 18 19 18 21 21 20 21 22 22 22 22 20 20 20 19 19 19 19 19 19 19 19 18 17 17 17 18 17 17 17 16 16 16 16 16 16 16 16 15 15 15 15 15 15
14 11 14 15 16 18 18 18 19 20 19 20 21 22 21 21 21 21 20 20 20 20 19 19 18 18 18 18 17 17 17 17 17 17 17 17 16 16 16 16 16 15 15 15 15 15 15 15 15
14 13 14 17 18 18 18 17 19 19 17 20 21 21 21 20 19 20 20 21 22 20 19 19 19 18 17 17 17 17 17 17 16 17 17 17 16 16 16 16 15 15 15 15 14 14 15 15 15
15 15 16 17 18 17 16 18 18 19 19 20 20 20 21 20 18 19 20 20 21 21 20 19 19 18 18 17 17 17 17 17 17 16 16 16 16 16 16 16 15 15 15 15 14 14 14 15 15
14 15 17 17 17 18 17 16 16 18 20 20 20 20 20 20 19 18 19 19 19 20 20 19 19 19 18 18 17 17 17 16 16 16 16 16 16 16 16 15 15 15 15 15 14 14 14 14 14
16 16 15 17 17 17 16 16 16 19 19 19 19 19 20 20 21 21 20 19 19 19 20 20 19 19 18 18 18 17 16 16 16 16 16 16 16 16 15 15 15 15 15 14 14 14 14 14 14
16 14 13 15 16 16 16 15 14 19 18 19 18 18 19 19 20 21 21 21 21 20 20 20 20 19 19 18 18 18 16 16 16 16 15 16 15 16 15 15 15 15 14 14 14 14 13 13 13
14 13 13 15 16 17 17 14 16 18 17 18 19 20 20 20 20 20 21 21 20 20 20 20 20 19 18 18 18 18 17 17 16 15 15 15 16 16 16 15 15 14 14 14 14 14 13 13 13
11 11 12 13 15 15 15 13 15 18 16 17 19 20 20 20 21 21 21 21 21 20 20 20 20 19 19 18 18 17 17 16 15 15 15 15 15 16 16 16 15 15 14 14 14 13 13 13 13
11 11 11 11 14 14 13 13 12 16 17 17 18 19 19 19 20 21 21 21 21 21 20 19 19 19 19 18 17 17 17 16 15 15 15 15 15 15 15 15 15 15 14 14 14 13 13 13 12
13 12 11 11 12 12 12 12 12 14 15 15 18 18 17 16 17 19 20 21 21 20 21 20 19 19 19 19 18 17 17 17 16 15 15 15 15 15 15 14 14 14 14 13 13 13 13 12 11
11 11 10 11 12 11 11 13 13 13 13 15 14 14 13 14 16 19 19 19 21 21 21 21 21 20 20 19 18 17 17 17 17 16 15 15 15 15 15 14 14 13 13 13 13 12 12 11 11
11 10 10 11 12 12 11 11 13 14 14 14 13 10 10 10 11 15 17 18 19 21 21 21 21 21 20 20 18 17 17 17 16 15 15 15 15 14 14 14 13 13 13 12 12 12 12 11 11
11 12 12 12 11 11 13 10 13 13 13 10 9 7 8 8 10 13 14 17 18 19 19 20 21 21 20 20 19 18 18 17 17 17 15 14 15 14 14 13 13 12 11 11 11 11 11 10 10
12 13 12 12 10 10 11 10 10 11 13 7 7 7 7 8 8 11 13 14 17 18 19 20 21 21 20 19 19 18 18 18 17 16 14 14 14 14 13 13 12 11 11 11 10 10 10 10 10
10 12 11 10 9 9 11 10 10 10 7 6 7 7 7 7 9 10 12 13 15 17 18 18 20 20 20 17 19 18 18 17 16 16 15 14 14 13 13 12 11 11 10 10 10 10 10 10 10
9 10 8 9 8 9 10 9 10 6 6 6 6 7 7 8 8 9 10 11 14 16 16 16 16 17 17 18 18 18 17 17 16 15 15 14 14 13 13 12 11 11 10 10 10 10 10 10 10
8 8 7 8 7 7 8 9 9 6 6 7 7 7 7 7 8 9 8 10 11 13 13 14 14 14 14 14 18 18 16 16 16 15 14 14 13 13 12 11 11 10 10 10 10 10 10 10 9
7 6 7 6 6 5 6 8 7 6 6 7 7 7 6 6 7 8 8 9 10 10 13 13 13 13 13 14 17 16 15 14 15 14 13 13 12 12 11 10 10 10 10 10 9 9 9 9 9
6 6 7 5 4 6 6 6 7 4 5 5 6 7 6 6 7 8 8 8 9 10 10 11 12 12 12 13 16 15 15 13 13 13 13 12 11 11 10 10 10 10 9 9 9 10 10 10 10
5 4 4 4 4 3 5 6 5 4 4 4 5 6 7 6 6 7 7 7 8 9 10 11 11 12 11 12 12 14 14 12 13 12 11 11 10 10 9 9 9 10 9 9 9 9 10 10 9
4 3 2 2 2 1 -1 2 6 3 4 5 5 5 6 7 7 7 7 7 7 7 9 10 11 12 12 13 12 12 11 11 11 10 10 9 9 9 8 8 9 9 9 9 9 9 9 9 9